Wetterdaten: Dienstag, 13.12.2016
Datum Zeit Temp. Aussen Temp. o. S. +5cm Feuchte Auss BlattFeu 1 Luftdruck Regen Sonnenschein Regendauer Solar Windben Empfang
13.12.2016 00:00 4,9 C 5,0 C 3,3 C 96 % 4 lf 1024,7 hPa 0,0 l/m 0 min 0 min 5 W/m 10,5 km/h (2 Bft) 98,00 %
13.12.2016 00:02 4,9 C 5,0 C 3,3 C 96 % 4 lf 1024,7 hPa 0,0 l/m 0 min 0 min 5 W/m 8,4 km/h (2 Bft) 97,22 %
13.12.2016 00:05 4,9 C 5,0 C 3,3 C 96 % 4 lf 1024,7 hPa 0,0 l/m 0 min 0 min 5 W/m 8,4 km/h (2 Bft) 98,77 %
13.12.2016 00:08 4,9 C 5,0 C 3,3 C 96 % 4 lf 1024,8 hPa 0,0 l/m 0 min 0 min 5 W/m 6,3 km/h (2 Bft) 100,00 %
13.12.2016 00:10 4,9 C 5,0 C 2,8 C 97 % 4 lf 1024,7 hPa 0,0 l/m 0 min 0 min 5 W/m 8,4 km/h (2 Bft) 97,87 %
13.12.2016 00:12 4,9 C 5,0 C 3,3 C 97 % 4 lf 1024,7 hPa 0,0 l/m 0 min 0 min 5 W/m 8,4 km/h (2 Bft) 100,00 %
13.12.2016 00:14 4,9 C 5,0 C 2,8 C 97 % 4 lf 1024,7 hPa 0,0 l/m 0 min 0 min 5 W/m 8,4 km/h (2 Bft) 100,00 %
13.12.2016 00:16 4,9 C 5,0 C 2,8 C 97 % 4 lf 1024,7 hPa 0,0 l/m 0 min 0 min 5 W/m 8,4 km/h (2 Bft) 95,65 %
13.12.2016 00:18 4,9 C 5,0 C 2,8 C 97 % 3 lf 1024,7 hPa 0,0 l/m 0 min 0 min 5 W/m 8,4 km/h (2 Bft) 97,87 %
13.12.2016 00:20 4,8 C 5,0 C 2,8 C 97 % 3 lf 1024,6 hPa 0,0 l/m 0 min 0 min 5 W/m 6,3 km/h (2 Bft) 97,87 %
13.12.2016 00:22 4,8 C 5,0 C 2,8 C 97 % 3 lf 1024,7 hPa 0,0 l/m 0 min 0 min 5 W/m 8,4 km/h (2 Bft) 97,87 %
13.12.2016 00:24 4,8 C 5,0 C 2,8 C 97 % 3 lf 1024,7 hPa 0,0 l/m 0 min 0 min 5 W/m 6,3 km/h (2 Bft) 97,87 %
13.12.2016 00:26 4,8 C 5,0 C 2,8 C 97 % 3 lf 1024,6 hPa 0,0 l/m 0 min 0 min 5 W/m 8,4 km/h (2 Bft) 97,83 %
13.12.2016 00:28 4,8 C 5,0 C 2,8 C 97 % 3 lf 1024,6 hPa 0,0 l/m 0 min 0 min 5 W/m 6,3 km/h (2 Bft) 97,87 %
13.12.2016 00:30 4,8 C 5,0 C 2,8 C 97 % 3 lf 1024,6 hPa 0,0 l/m 0 min 0 min 5 W/m 8,4 km/h (2 Bft) 93,62 %
13.12.2016 00:32 4,8 C 5,0 C 2,8 C 97 % 3 lf 1024,6 hPa 0,0 l/m 0 min 0 min 5 W/m 8,4 km/h (2 Bft) 95,74 %
13.12.2016 00:34 4,8 C 5,0 C 2,8 C 97 % 3 lf 1024,6 hPa 0,0 l/m 0 min 0 min 5 W/m 10,5 km/h (2 Bft) 97,87 %
13.12.2016 00:36 4,8 C 5,0 C 2,8 C 97 % 3 lf 1024,5 hPa 0,0 l/m 0 min 0 min 5 W/m 8,4 km/h (2 Bft) 95,74 %
13.12.2016 00:38 4,8 C 5,0 C 2,8 C 97 % 3 lf 1024,5 hPa 0,0 l/m 0 min 0 min 5 W/m 8,4 km/h (2 Bft) 97,83 %
13.12.2016 00:40 4,7 C 5,0 C 2,8 C 97 % 3 lf 1024,5 hPa 0,0 l/m 0 min 0 min 5 W/m 6,3 km/h (2 Bft) 95,74 %
13.12.2016 00:42 4,7 C 5,0 C 2,2 C 97 % 3 lf 1024,5 hPa 0,0 l/m 0 min 0 min 5 W/m 6,3 km/h (2 Bft) 97,87 %
13.12.2016 00:44 4,7 C 4,4 C 2,2 C 97 % 3 lf 1024,4 hPa 0,0 l/m 0 min 0 min 5 W/m 6,3 km/h (2 Bft) 95,74 %
13.12.2016 00:46 4,7 C 4,4 C 2,2 C 96 % 3 lf 1024,4 hPa 0,0 l/m 0 min 0 min 5 W/m 6,3 km/h (2 Bft) 95,74 %
13.12.2016 00:48 4,7 C 4,4 C 2,2 C 96 % 3 lf 1024,4 hPa 0,0 l/m 0 min 0 min 5 W/m 6,3 km/h (2 Bft) 93,62 %
13.12.2016 00:50 4,7 C 4,4 C 2,2 C 96 % 3 lf 1024,4 hPa 0,0 l/m 0 min 0 min 5 W/m 6,3 km/h (2 Bft) 95,65 %
13.12.2016 00:52 4,7 C 4,4 C 2,2 C 96 % 3 lf 1024,4 hPa 0,0 l/m 0 min 0 min 5 W/m 6,3 km/h (2 Bft) 97,87 %
13.12.2016 00:54 4,6 C 4,4 C 1,7 C 96 % 4 lf 1024,4 hPa 0,0 l/m 0 min 0 min 5 W/m 6,3 km/h (2 Bft) 97,87 %
13.12.2016 00:56 4,6 C 4,4 C 1,7 C 96 % 4 lf 1024,4 hPa 0,0 l/m 0 min 0 min 5 W/m 6,3 km/h (2 Bft) 95,74 %
13.12.2016 00:58 4,6 C 4,4 C 1,7 C 96 % 4 lf 1024,3 hPa 0,0 l/m 0 min 0 min 5 W/m 6,3 km/h (2 Bft) 93,62 %
13.12.2016 01:00 4,6 C 4,4 C 1,7 C 96 % 4 lf 1024,3 hPa 0,0 l/m 0 min 0 min 5 W/m 6,3 km/h (2 Bft) 97,87 %
13.12.2016 01:02 4,5 C 4,4 C 1,7 C 97 % 4 lf 1024,4 hPa 0,0 l/m 0 min 0 min 5 W/m 6,3 km/h (2 Bft) 97,83 %
13.12.2016 01:04 4,5 C 4,4 C 1,7 C 97 % 4 lf 1024,3 hPa 0,0 l/m 0 min 0 min 5 W/m 8,4 km/h (2 Bft) 95,74 %
13.12.2016 01:06 4,5 C 4,4 C 1,7 C 97 % 4 lf 1024,3 hPa 0,0 l/m 0 min 0 min 5 W/m 8,4 km/h (2 Bft) 97,87 %
13.12.2016 01:08 4,4 C 4,4 C 1,7 C 97 % 4 lf 1024,3 hPa 0,0 l/m 0 min 0 min 5 W/m 8,4 km/h (2 Bft) 95,74 %
13.12.2016 01:10 4,4 C 4,4 C 1,7 C 97 % 4 lf 1024,2 hPa 0,0 l/m 0 min 0 min 5 W/m 6,3 km/h (2 Bft) 100,00 %
13.12.2016 01:12 4,4 C 4,4 C 1,7 C 97 % 4 lf 1024,3 hPa 0,0 l/m 0 min 0 min 5 W/m 10,5 km/h (2 Bft) 97,87 %
13.12.2016 01:14 4,3 C 4,4 C 1,7 C 97 % 5 lf 1024,2 hPa 0,0 l/m 0 min 0 min 5 W/m 8,4 km/h (2 Bft) 95,65 %
13.12.2016 01:16 4,3 C 4,4 C 1,7 C 96 % 4 lf 1024,2 hPa 0,0 l/m 0 min 0 min 5 W/m 8,4 km/h (2 Bft) 95,74 %
13.12.2016 01:18 4,3 C 4,4 C 1,7 C 96 % 5 lf 1024,1 hPa 0,0 l/m 0 min 0 min 5 W/m 8,4 km/h (2 Bft) 97,87 %
13.12.2016 01:20 4,3 C 4,4 C 1,7 C 96 % 5 lf 1024,2 hPa 0,0 l/m 0 min 0 min 5 W/m 8,4 km/h (2 Bft) 97,87 %
13.12.2016 01:22 4,3 C 4,4 C 1,7 C 96 % 5 lf 1024,2 hPa 0,0 l/m 0 min 0 min 5 W/m 8,4 km/h (2 Bft) 97,87 %
13.12.2016 01:24 4,2 C 4,4 C 1,7 C 96 % 6 lf 1024,1 hPa 0,0 l/m 0 min 0 min 3 W/m 8,4 km/h (2 Bft) 97,83 %
13.12.2016 01:26 4,2 C 3,9 C 1,7 C 96 % 6 lf 1024,1 hPa 0,0 l/m 0 min 0 min 3 W/m 8,4 km/h (2 Bft) 89,36 %
13.12.2016 01:28 4,2 C 3,9 C 1,1 C 96 % 6 lf 1024,1 hPa 0,0 l/m 0 min 0 min 3 W/m 8,4 km/h (2 Bft) 97,87 %
13.12.2016 01:30 4,2 C 3,9 C 1,1 C 96 % 6 lf 1024,1 hPa 0,0 l/m 0 min 0 min 5 W/m 10,5 km/h (2 Bft) 95,74 %
13.12.2016 01:32 4,2 C 3,9 C 1,1 C 96 % 6 lf 1024,1 hPa 0,0 l/m 0 min 0 min 5 W/m 6,3 km/h (2 Bft) 93,62 %
13.12.2016 01:34 4,1 C 3,9 C 1,1 C 96 % 6 lf 1024,1 hPa 0,0 l/m 0 min 0 min 5 W/m 6,3 km/h (2 Bft) 93,62 %
13.12.2016 01:36 4,1 C 3,9 C 1,1 C 96 % 6 lf 1024,1 hPa 0,0 l/m 0 min 0 min 1 W/m 8,4 km/h (2 Bft) 95,65 %
13.12.2016 01:38 4,1 C 3,9 C 1,1 C 96 % 6 lf 1024,0 hPa 0,0 l/m 0 min 0 min 2 W/m 8,4 km/h (2 Bft) 95,74 %
13.12.2016 01:40 4,1 C 3,9 C 1,1 C 96 % 7 lf 1024,0 hPa 0,0 l/m 0 min 0 min 1 W/m 6,3 km/h (2 Bft) 95,74 %
13.12.2016 01:42 4,0 C 3,9 C 1,1 C 96 % 6 lf 1024,0 hPa 0,0 l/m 0 min 0 min 1 W/m 6,3 km/h (2 Bft) 93,62 %
13.12.2016 01:44 4,0 C 3,9 C 1,1 C 96 % 6 lf 1024,1 hPa 0,0 l/m 0 min 0 min 3 W/m 6,3 km/h (2 Bft) 95,74 %
13.12.2016 01:46 4,0 C 3,9 C 0,6 C 96 % 7 lf 1024,1 hPa 0,0 l/m 0 min 0 min 1 W/m 6,3 km/h (2 Bft) 95,74 %
13.12.2016 01:48 4,0 C 3,9 C 0,6 C 96 % 7 lf 1024,0 hPa 0,0 l/m 0 min 0 min 0 W/m 8,4 km/h (2 Bft) 95,65 %
13.12.2016 01:50 3,9 C 3,9 C 1,1 C 96 % 7 lf 1024,0 hPa 0,0 l/m 0 min 0 min 2 W/m 8,4 km/h (2 Bft) 95,74 %
13.12.2016 01:52 3,9 C 3,3 C 0,6 C 96 % 7 lf 1024,0 hPa 0,0 l/m 0 min 0 min 0 W/m 8,4 km/h (2 Bft) 95,74 %
13.12.2016 01:54 3,9 C 3,3 C 0,6 C 96 % 7 lf 1024,0 hPa 0,0 l/m 0 min 0 min 0 W/m 8,4 km/h (2 Bft) 93,62 %
13.12.2016 01:56 3,9 C 3,3 C 0,6 C 96 % 7 lf 1023,9 hPa 0,0 l/m 0 min 0 min 0 W/m 8,4 km/h (2 Bft) 95,74 %
13.12.2016 01:58 3,8 C 3,3 C 0,6 C 96 % 8 lf 1023,8 hPa 0,0 l/m 0 min 0 min 4 W/m 6,3 km/h (2 Bft) 97,87 %
13.12.2016 02:00 3,8 C 3,3 C 0,6 C 96 % 8 lf 1023,8 hPa 0,0 l/m 0 min 0 min 3 W/m 6,3 km/h (2 Bft) 97,83 %
13.12.2016 02:02 3,8 C 3,3 C 0,6 C 96 % 8 lf 1023,8 hPa 0,0 l/m 0 min 0 min 0 W/m 6,3 km/h (2 Bft) 93,62 %
13.12.2016 02:04 3,8 C 2,8 C 0,0 C 96 % 8 lf 1023,8 hPa 0,0 l/m 0 min 0 min 2 W/m 6,3 km/h (2 Bft) 97,87 %
13.12.2016 02:06 3,7 C 2,8 C 0,0 C 96 % 9 lf 1023,8 hPa 0,0 l/m 0 min 0 min 4 W/m 4,2 km/h (1 Bft) 97,87 %
13.12.2016 02:08 3,7 C 2,8 C 0,0 C 96 % 9 lf 1023,8 hPa 0,0 l/m 0 min 0 min 5 W/m 0,0 km/h (0 Bft) 97,83 %
13.12.2016 02:10 3,7 C 3,3 C 0,0 C 96 % 10 lf 1023,8 hPa 0,0 l/m 0 min 0 min 5 W/m 6,3 km/h (2 Bft) 95,74 %
13.12.2016 02:12 3,7 C 2,8 C 0,0 C 96 % 10 lf 1023,7 hPa 0,0 l/m 0 min 0 min 5 W/m 8,4 km/h (2 Bft) 97,83 %
13.12.2016 02:14 3,6 C 2,8 C 0,0 C 96 % 10 lf 1023,8 hPa 0,0 l/m 0 min 0 min 5 W/m 6,3 km/h (2 Bft) 97,87 %
13.12.2016 02:16 3,6 C 2,8 C 0,0 C 96 % 10 lf 1023,8 hPa 0,0 l/m 0 min 0 min 5 W/m 6,3 km/h (2 Bft) 93,62 %
13.12.2016 02:18 3,6 C 2,8 C 0,0 C 96 % 11 lf 1023,8 hPa 0,0 l/m 0 min 0 min 5 W/m 4,2 km/h (1 Bft) 100,00 %
13.12.2016 02:20 3,5 C 2,8 C 0,0 C 96 % 11 lf 1023,9 hPa 0,0 l/m 0 min 0 min 5 W/m 4,2 km/h (1 Bft) 100,00 %
13.12.2016 02:22 3,5 C 2,8 C 0,0 C 96 % 11 lf 1023,9 hPa 0,0 l/m 0 min 0 min 5 W/m 6,3 km/h (2 Bft) 100,00 %
13.12.2016 02:24 3,4 C 2,8 C 0,0 C 96 % 12 lf 1023,9 hPa 0,0 l/m 0 min 0 min 0 W/m 6,3 km/h (2 Bft) 100,00 %
13.12.2016 02:26 3,4 C 2,8 C 0,0 C 96 % 12 lf 1023,8 hPa 0,0 l/m 0 min 0 min 0 W/m 6,3 km/h (2 Bft) 100,00 %
13.12.2016 02:28 3,4 C 2,8 C 0,0 C 96 % 12 lf 1023,8 hPa 0,0 l/m 0 min 0 min 0 W/m 6,3 km/h (2 Bft) 100,00 %
13.12.2016 02:30 3,3 C 2,8 C 0,0 C 96 % 13 lf 1023,7 hPa 0,0 l/m 0 min 0 min 0 W/m 6,3 km/h (2 Bft) 100,00 %
13.12.2016 02:32 3,3 C 2,8 C 0,0 C 96 % 12 lf 1023,8 hPa 0,0 l/m 0 min 0 min 0 W/m 4,2 km/h (1 Bft) 97,87 %
13.12.2016 02:34 3,3 C 2,8 C 0,0 C 96 % 13 lf 1023,7 hPa 0,0 l/m 0 min 0 min 0 W/m 6,3 km/h (2 Bft) 93,48 %
13.12.2016 02:36 3,2 C 2,8 C 0,0 C 96 % 13 lf 1023,8 hPa 0,0 l/m 0 min 0 min 0 W/m 6,3 km/h (2 Bft) 100,00 %
13.12.2016 02:38 3,2 C 2,8 C 0,0 C 96 % 13 lf 1023,7 hPa 0,0 l/m 0 min 0 min 0 W/m 6,3 km/h (2 Bft) 100,00 %
13.12.2016 02:40 3,2 C 2,8 C 0,0 C 96 % 13 lf 1023,8 hPa 0,0 l/m 0 min 0 min 0 W/m 4,2 km/h (1 Bft) 95,74 %
13.12.2016 02:42 3,2 C 2,8 C 0,0 C 96 % 13 lf 1023,7 hPa 0,0 l/m 0 min 0 min 0 W/m 6,3 km/h (2 Bft) 97,87 %
13.12.2016 02:44 3,1 C 2,8 C 0,0 C 96 % 14 lf 1023,8 hPa 0,0 l/m 0 min 0 min 0 W/m 6,3 km/h (2 Bft) 95,74 %
13.12.2016 02:46 3,1 C 2,8 C 0,0 C 96 % 14 lf 1023,7 hPa 0,0 l/m 0 min 0 min 0 W/m 6,3 km/h (2 Bft) 97,83 %
13.12.2016 02:48 3,1 C 2,8 C 0,0 C 96 % 14 lf 1023,7 hPa 0,0 l/m 0 min 0 min 0 W/m 6,3 km/h (2 Bft) 93,62 %
13.12.2016 02:50 3,1 C 2,8 C 0,0 C 96 % 14 lf 1023,8 hPa 0,0 l/m 0 min 0 min 0 W/m 4,2 km/h (1 Bft) 95,74 %
13.12.2016 02:52 3,1 C 2,8 C 0,0 C 96 % 14 lf 1023,7 hPa 0,0 l/m 0 min 0 min 0 W/m 4,2 km/h (1 Bft) 100,00 %
13.12.2016 02:54 3,0 C 2,8 C -0,6 C 96 % 14 lf 1023,7 hPa 0,0 l/m 0 min 0 min 0 W/m 4,2 km/h (1 Bft) 97,87 %
13.12.2016 02:56 3,0 C 2,8 C -0,6 C 96 % 15 lf 1023,7 hPa 0,0 l/m 0 min 0 min 0 W/m 6,3 km/h (2 Bft) 95,74 %
13.12.2016 02:58 3,0 C 2,8 C 0,0 C 96 % 14 lf 1023,6 hPa 0,0 l/m 0 min 0 min 0 W/m 6,3 km/h (2 Bft) 95,65 %
13.12.2016 03:00 2,9 C 2,8 C 0,0 C 96 % 15 lf 1023,6 hPa 0,0 l/m 0 min 0 min 0 W/m 4,2 km/h (1 Bft) 93,62 %
13.12.2016 03:02 2,9 C 2,8 C 0,0 C 96 % 15 lf 1023,6 hPa 0,0 l/m 0 min 0 min 0 W/m 6,3 km/h (2 Bft) 95,74 %
13.12.2016 03:04 2,9 C 2,8 C 0,0 C 96 % 15 lf 1023,6 hPa 0,0 l/m 0 min 0 min 0 W/m 6,3 km/h (2 Bft) 97,87 %
13.12.2016 03:06 2,9 C 2,8 C 0,0 C 96 % 15 lf 1023,6 hPa 0,0 l/m 0 min 0 min 0 W/m 6,3 km/h (2 Bft) 95,74 %
13.12.2016 03:08 2,9 C 2,8 C 0,0 C 96 % 15 lf 1023,6 hPa 0,0 l/m 0 min 0 min 0 W/m 6,3 km/h (2 Bft) 97,87 %
13.12.2016 03:10 2,9 C 2,8 C 0,0 C 96 % 15 lf 1023,6 hPa 0,0 l/m 0 min 0 min 0 W/m 6,3 km/h (2 Bft) 95,65 %
13.12.2016 03:12 2,9 C 2,8 C 0,0 C 96 % 15 lf 1023,6 hPa 0,0 l/m 0 min 0 min 0 W/m 6,3 km/h (2 Bft) 93,62 %
13.12.2016 03:14 2,9 C 2,8 C 0,0 C 96 % 15 lf 1023,6 hPa 0,0 l/m 0 min 0 min 0 W/m 6,3 km/h (2 Bft) 95,74 %
13.12.2016 03:16 2,9 C 2,8 C 0,6 C 96 % 15 lf 1023,5 hPa 0,0 l/m 0 min 0 min 0 W/m 6,3 km/h (2 Bft) 97,87 %
13.12.2016 03:18 2,8 C 2,8 C 1,1 C 96 % 15 lf 1023,6 hPa 0,0 l/m 0 min 0 min 0 W/m 4,2 km/h (1 Bft) 97,87 %
13.12.2016 03:20 2,8 C 2,8 C 1,1 C 96 % 15 lf 1023,5 hPa 0,0 l/m 0 min 0 min 0 W/m 6,3 km/h (2 Bft) 97,87 %
13.12.2016 03:22 2,8 C 2,8 C 1,1 C 96 % 15 lf 1023,5 hPa 0,0 l/m 0 min 0 min 0 W/m 6,3 km/h (2 Bft) 95,65 %
13.12.2016 03:24 2,8 C 2,8 C 1,1 C 96 % 15 lf 1023,5 hPa 0,0 l/m 0 min 0 min 0 W/m 6,3 km/h (2 Bft) 93,62 %
13.12.2016 03:26 2,8 C 2,8 C 1,1 C 96 % 15 lf 1023,5 hPa 0,0 l/m 0 min 0 min 0 W/m 4,2 km/h (1 Bft) 91,49 %
13.12.2016 03:28 2,8 C 3,3 C 1,1 C 96 % 15 lf 1023,5 hPa 0,0 l/m 0 min 0 min 0 W/m 4,2 km/h (1 Bft) 93,62 %
13.12.2016 03:30 2,8 C 3,3 C 1,7 C 96 % 15 lf 1023,5 hPa 0,0 l/m 0 min 0 min 0 W/m 4,2 km/h (1 Bft) 93,62 %
13.12.2016 03:32 2,8 C 3,3 C 1,7 C 96 % 15 lf 1023,5 hPa 0,0 l/m 0 min 0 min 0 W/m 6,3 km/h (2 Bft) 93,62 %
13.12.2016 03:34 2,8 C 3,3 C 1,7 C 96 % 15 lf 1023,5 hPa 0,0 l/m 0 min 0 min 0 W/m 6,3 km/h (2 Bft) 91,30 %
13.12.2016 03:36 2,8 C 3,3 C 1,7 C 96 % 15 lf 1023,5 hPa 0,0 l/m 0 min 0 min 0 W/m 8,4 km/h (2 Bft) 93,62 %
13.12.2016 03:38 2,8 C 3,3 C 1,7 C 96 % 15 lf 1023,5 hPa 0,0 l/m 0 min 0 min 0 W/m 6,3 km/h (2 Bft) 89,36 %
13.12.2016 03:40 2,8 C 3,3 C 1,7 C 96 % 15 lf 1023,5 hPa 0,0 l/m 0 min 0 min 0 W/m 6,3 km/h (2 Bft) 91,49 %
13.12.2016 03:42 2,8 C 3,3 C 2,2 C 96 % 15 lf 1023,5 hPa 0,0 l/m 0 min 0 min 0 W/m 6,3 km/h (2 Bft) 87,23 %
13.12.2016 03:44 2,8 C 3,9 C 2,2 C 96 % 15 lf 1023,5 hPa 0,0 l/m 0 min 0 min 0 W/m 4,2 km/h (1 Bft) 89,13 %
13.12.2016 03:46 2,8 C 3,9 C 2,2 C 96 % 15 lf 1023,5 hPa 0,0 l/m 0 min 0 min 0 W/m 6,3 km/h (2 Bft) 95,74 %
13.12.2016 03:48 2,9 C 3,9 C 2,2 C 96 % 15 lf 1023,4 hPa 0,0 l/m 0 min 0 min 0 W/m 6,3 km/h (2 Bft) 93,62 %
13.12.2016 03:50 2,9 C 3,9 C 2,2 C 96 % 14 lf 1023,4 hPa 0,0 l/m 0 min 0 min 0 W/m 8,4 km/h (2 Bft) 95,74 %
13.12.2016 03:52 2,9 C 3,9 C 2,2 C 96 % 14 lf 1023,4 hPa 0,0 l/m 0 min 0 min 0 W/m 8,4 km/h (2 Bft) 95,74 %
13.12.2016 03:54 2,9 C 3,9 C 2,2 C 96 % 14 lf 1023,4 hPa 0,0 l/m 0 min 0 min 0 W/m 6,3 km/h (2 Bft) 93,62 %
13.12.2016 03:56 3,0 C 3,9 C 2,2 C 96 % 13 lf 1023,4 hPa 0,0 l/m 0 min 0 min 0 W/m 4,2 km/h (1 Bft) 95,65 %
13.12.2016 03:58 3,1 C 3,9 C 2,2 C 96 % 12 lf 1023,4 hPa 0,0 l/m 0 min 0 min 0 W/m 4,2 km/h (1 Bft) 93,62 %
13.12.2016 04:00 3,1 C 3,9 C 2,2 C 96 % 11 lf 1023,5 hPa 0,0 l/m 0 min 0 min 0 W/m 8,4 km/h (2 Bft) 95,74 %
13.12.2016 04:02 3,1 C 3,9 C 2,2 C 96 % 11 lf 1023,4 hPa 0,0 l/m 0 min 0 min 0 W/m 4,2 km/h (1 Bft) 80,00 %
13.12.2016 04:04 3,1 C 3,9 C 2,2 C 96 % 8 lf 1023,4 hPa 0,0 l/m 0 min 0 min 0 W/m 6,3 km/h (2 Bft) 89,36 %
13.12.2016 04:06 3,2 C 3,9 C 2,2 C 96 % 6 lf 1023,4 hPa 0,0 l/m 0 min 0 min 0 W/m 6,3 km/h (2 Bft) 87,23 %
13.12.2016 04:08 3,2 C 3,9 C 2,2 C 96 % 4 lf 1023,4 hPa 0,0 l/m 0 min 0 min 0 W/m 6,3 km/h (2 Bft) 91,30 %
13.12.2016 04:10 3,2 C 3,9 C 2,2 C 96 % 3 lf 1023,4 hPa 0,0 l/m 0 min 0 min 0 W/m 8,4 km/h (2 Bft) 93,62 %
13.12.2016 04:12 3,2 C 3,9 C 2,2 C 96 % 3 lf 1023,3 hPa 0,0 l/m 0 min 0 min 0 W/m 8,4 km/h (2 Bft) 93,62 %
13.12.2016 04:14 3,3 C 3,9 C 2,2 C 96 % 2 lf 1023,4 hPa 0,0 l/m 0 min 0 min 0 W/m 6,3 km/h (2 Bft) 95,74 %
13.12.2016 04:16 3,3 C 3,9 C 2,2 C 96 % 1 lf 1023,5 hPa 0,0 l/m 0 min 0 min 0 W/m 6,3 km/h (2 Bft) 93,62 %
13.12.2016 04:18 3,3 C 3,9 C 2,2 C 96 % 1 lf 1023,5 hPa 0,0 l/m 0 min 0 min 0 W/m 8,4 km/h (2 Bft) 95,74 %
13.12.2016 04:20 3,4 C 3,9 C 2,2 C 97 % 0 lf 1023,5 hPa 0,0 l/m 0 min 0 min 0 W/m 6,3 km/h (2 Bft) 97,83 %
13.12.2016 04:22 3,4 C 3,9 C 2,2 C 97 % 0 lf 1023,5 hPa 0,0 l/m 0 min 0 min 0 W/m 8,4 km/h (2 Bft) 91,49 %
13.12.2016 04:24 3,4 C 3,9 C 2,2 C 97 % 0 lf 1023,5 hPa 0,0 l/m 0 min 0 min 0 W/m 6,3 km/h (2 Bft) 95,74 %
13.12.2016 04:26 3,4 C 3,9 C 2,2 C 97 % 0 lf 1023,5 hPa 0,0 l/m 0 min 0 min 0 W/m 6,3 km/h (2 Bft) 95,74 %
13.12.2016 04:28 3,4 C 3,9 C 2,8 C 97 % 0 lf 1023,5 hPa 0,0 l/m 0 min 0 min 0 W/m 6,3 km/h (2 Bft) 93,62 %
13.12.2016 04:30 3,4 C 4,4 C 2,8 C 97 % 0 lf 1023,4 hPa 0,0 l/m 0 min 0 min 0 W/m 8,4 km/h (2 Bft) 95,74 %
13.12.2016 04:32 3,4 C 4,4 C 2,8 C 97 % 0 lf 1023,5 hPa 0,0 l/m 0 min 0 min 0 W/m 6,3 km/h (2 Bft) 93,48 %
13.12.2016 04:34 3,5 C 4,4 C 2,8 C 97 % 0 lf 1023,4 hPa 0,0 l/m 0 min 0 min 0 W/m 6,3 km/h (2 Bft) 97,87 %
13.12.2016 04:36 3,5 C 4,4 C 2,8 C 97 % 0 lf 1023,4 hPa 0,0 l/m 0 min 0 min 0 W/m 8,4 km/h (2 Bft) 93,62 %
13.12.2016 04:38 3,5 C 4,4 C 2,8 C 97 % 0 lf 1023,4 hPa 0,0 l/m 0 min 0 min 0 W/m 8,4 km/h (2 Bft) 97,87 %
13.12.2016 04:40 3,6 C 4,4 C 2,8 C 97 % 0 lf 1023,4 hPa 0,0 l/m 0 min 0 min 0 W/m 6,3 km/h (2 Bft) 97,87 %
13.12.2016 04:42 3,6 C 4,4 C 2,8 C 96 % 0 lf 1023,4 hPa 0,0 l/m 0 min 0 min 0 W/m 8,4 km/h (2 Bft) 95,74 %
13.12.2016 04:44 3,6 C 4,4 C 2,8 C 96 % 0 lf 1023,4 hPa 0,0 l/m 0 min 0 min 0 W/m 8,4 km/h (2 Bft) 100,00 %
13.12.2016 04:46 3,6 C 4,4 C 2,8 C 96 % 0 lf 1023,4 hPa 0,0 l/m 0 min 0 min 0 W/m 6,3 km/h (2 Bft) 95,74 %
13.12.2016 04:48 3,6 C 4,4 C 2,8 C 96 % 0 lf 1023,3 hPa 0,0 l/m 0 min 0 min 0 W/m 8,4 km/h (2 Bft) 97,87 %
13.12.2016 04:50 3,6 C 4,4 C 2,8 C 96 % 0 lf 1023,4 hPa 0,0 l/m 0 min 0 min 0 W/m 10,5 km/h (2 Bft) 100,00 %
13.12.2016 04:52 3,7 C 4,4 C 2,8 C 96 % 0 lf 1023,3 hPa 0,0 l/m 0 min 0 min 0 W/m 8,4 km/h (2 Bft) 97,87 %
13.12.2016 04:54 3,7 C 4,4 C 2,8 C 96 % 0 lf 1023,3 hPa 0,0 l/m 0 min 0 min 0 W/m 12,6 km/h (3 Bft) 100,00 %
13.12.2016 04:56 3,7 C 4,4 C 2,8 C 96 % 0 lf 1023,3 hPa 0,0 l/m 0 min 0 min 0 W/m 10,5 km/h (2 Bft) 97,87 %
13.12.2016 04:58 3,7 C 4,4 C 2,8 C 96 % 0 lf 1023,3 hPa 0,0 l/m 0 min 0 min 0 W/m 8,4 km/h (2 Bft) 95,74 %
13.12.2016 05:00 3,7 C 4,4 C 2,8 C 97 % 0 lf 1023,3 hPa 0,0 l/m 0 min 0 min 0 W/m 10,5 km/h (2 Bft) 100,00 %
13.12.2016 05:02 3,8 C 4,4 C 2,8 C 97 % 0 lf 1023,3 hPa 0,0 l/m 0 min 0 min 0 W/m 10,5 km/h (2 Bft) 97,87 %
13.12.2016 05:04 3,8 C 4,4 C 2,8 C 97 % 0 lf 1023,2 hPa 0,0 l/m 0 min 0 min 0 W/m 10,5 km/h (2 Bft) 95,74 %
13.12.2016 05:06 3,8 C 4,4 C 2,8 C 97 % 0 lf 1023,2 hPa 0,0 l/m 0 min 0 min 0 W/m 12,6 km/h (3 Bft) 97,83 %
13.12.2016 05:08 3,8 C 4,4 C 2,8 C 97 % 0 lf 1023,2 hPa 0,0 l/m 0 min 0 min 0 W/m 10,5 km/h (2 Bft) 95,74 %
13.12.2016 05:10 3,8 C 4,4 C 2,8 C 97 % 0 lf 1023,2 hPa 0,0 l/m 0 min 0 min 0 W/m 8,4 km/h (2 Bft) 100,00 %
13.12.2016 05:12 3,8 C 4,4 C 2,8 C 97 % 0 lf 1023,2 hPa 0,0 l/m 0 min 0 min 0 W/m 10,5 km/h (2 Bft) 97,87 %
13.12.2016 05:14 3,9 C 4,4 C 2,8 C 97 % 0 lf 1023,2 hPa 0,0 l/m 0 min 0 min 0 W/m 10,5 km/h (2 Bft) 95,74 %
13.12.2016 05:16 3,9 C 4,4 C 3,3 C 97 % 0 lf 1023,3 hPa 0,0 l/m 0 min 0 min 0 W/m 10,5 km/h (2 Bft) 95,74 %
13.12.2016 05:18 3,9 C 4,4 C 3,3 C 96 % 0 lf 1023,3 hPa 0,0 l/m 0 min 0 min 0 W/m 10,5 km/h (2 Bft) 93,48 %
13.12.2016 05:20 3,9 C 4,4 C 3,3 C 96 % 0 lf 1023,3 hPa 0,0 l/m 0 min 0 min 0 W/m 10,5 km/h (2 Bft) 93,62 %
13.12.2016 05:22 3,9 C 4,4 C 3,3 C 96 % 0 lf 1023,3 hPa 0,0 l/m 0 min 0 min 0 W/m 12,6 km/h (3 Bft) 95,74 %
13.12.2016 05:24 3,9 C 4,4 C 3,3 C 96 % 0 lf 1023,3 hPa 0,0 l/m 0 min 0 min 0 W/m 12,6 km/h (3 Bft) 97,87 %
13.12.2016 05:26 4,0 C 4,4 C 3,3 C 96 % 0 lf 1023,3 hPa 0,0 l/m 0 min 0 min 0 W/m 12,6 km/h (3 Bft) 97,87 %
13.12.2016 05:28 4,0 C 5,0 C 3,3 C 97 % 0 lf 1023,3 hPa 0,0 l/m 0 min 0 min 0 W/m 10,5 km/h (2 Bft) 97,87 %
13.12.2016 05:30 4,0 C 5,0 C 3,3 C 96 % 0 lf 1023,3 hPa 0,0 l/m 0 min 0 min 0 W/m 8,4 km/h (2 Bft) 95,65 %
13.12.2016 05:32 4,1 C 5,0 C 3,3 C 96 % 0 lf 1023,3 hPa 0,0 l/m 0 min 0 min 0 W/m 8,4 km/h (2 Bft) 97,87 %
13.12.2016 05:34 4,1 C 5,0 C 3,3 C 96 % 0 lf 1023,3 hPa 0,0 l/m 0 min 0 min 0 W/m 10,5 km/h (2 Bft) 95,74 %
13.12.2016 05:36 4,1 C 5,0 C 3,3 C 96 % 0 lf 1023,3 hPa 0,0 l/m 0 min 0 min 0 W/m 8,4 km/h (2 Bft) 91,49 %
13.12.2016 05:38 4,1 C 5,0 C 3,3 C 96 % 0 lf 1023,3 hPa 0,0 l/m 0 min 0 min 0 W/m 8,4 km/h (2 Bft) 100,00 %
13.12.2016 05:40 4,1 C 5,0 C 3,3 C 96 % 0 lf 1023,3 hPa 0,0 l/m 0 min 0 min 0 W/m 6,3 km/h (2 Bft) 100,00 %
13.12.2016 05:42 4,2 C 5,0 C 3,3 C 96 % 0 lf 1023,2 hPa 0,0 l/m 0 min 0 min 0 W/m 8,4 km/h (2 Bft) 100,00 %
13.12.2016 05:44 4,2 C 5,0 C 3,3 C 96 % 0 lf 1023,2 hPa 0,0 l/m 0 min 0 min 0 W/m 10,5 km/h (2 Bft) 100,00 %
13.12.2016 05:46 4,2 C 5,0 C 3,3 C 96 % 0 lf 1023,2 hPa 0,0 l/m 0 min 0 min 0 W/m 6,3 km/h (2 Bft) 95,74 %
13.12.2016 05:48 4,2 C 5,0 C 3,3 C 96 % 0 lf 1023,3 hPa 0,0 l/m 0 min 0 min 0 W/m 8,4 km/h (2 Bft) 100,00 %
13.12.2016 05:50 4,2 C 5,0 C 3,3 C 96 % 0 lf 1023,2 hPa 0,0 l/m 0 min 0 min 0 W/m 6,3 km/h (2 Bft) 100,00 %
13.12.2016 05:52 4,2 C 5,0 C 3,3 C 96 % 0 lf 1023,3 hPa 0,0 l/m 0 min 0 min 0 W/m 8,4 km/h (2 Bft) 97,87 %
13.12.2016 05:54 4,2 C 5,0 C 3,3 C 96 % 0 lf 1023,3 hPa 0,0 l/m 0 min 0 min 0 W/m 8,4 km/h (2 Bft) 100,00 %
13.12.2016 05:56 4,2 C 5,0 C 3,3 C 96 % 0 lf 1023,3 hPa 0,0 l/m 0 min 0 min 0 W/m 8,4 km/h (2 Bft) 100,00 %
13.12.2016 05:58 4,3 C 5,0 C 3,3 C 96 % 0 lf 1023,3 hPa 0,0 l/m 0 min 0 min 0 W/m 6,3 km/h (2 Bft) 93,62 %
13.12.2016 06:00 4,3 C 5,0 C 3,3 C 96 % 0 lf 1023,3 hPa 0,0 l/m 0 min 0 min 0 W/m 8,4 km/h (2 Bft) 100,00 %
13.12.2016 06:02 4,3 C 5,0 C 3,3 C 96 % 0 lf 1023,3 hPa 0,0 l/m 0 min 0 min 0 W/m 8,4 km/h (2 Bft) 100,00 %
13.12.2016 06:06 4,3 C 5,0 C 3,3 C 96 % 0 lf 1023,2 hPa 0,0 l/m 0 min 0 min 0 W/m 8,4 km/h (2 Bft) 98,92 %
13.12.2016 06:08 4,3 C 5,0 C 3,3 C 96 % 0 lf 1023,3 hPa 0,0 l/m 0 min 0 min 0 W/m 8,4 km/h (2 Bft) 100,00 %
13.12.2016 06:10 4,3 C 5,0 C 3,3 C 96 % 0 lf 1023,2 hPa 0,0 l/m 0 min 0 min 0 W/m 10,5 km/h (2 Bft) 97,87 %
13.12.2016 06:12 4,3 C 5,0 C 3,3 C 96 % 0 lf 1023,2 hPa 0,0 l/m 0 min 0 min 0 W/m 8,4 km/h (2 Bft) 97,87 %
13.12.2016 06:14 4,4 C 5,0 C 3,3 C 96 % 0 lf 1023,3 hPa 0,0 l/m 0 min 0 min 0 W/m 8,4 km/h (2 Bft) 95,74 %
13.12.2016 06:16 4,4 C 5,0 C 3,3 C 96 % 0 lf 1023,2 hPa 0,0 l/m 0 min 0 min 0 W/m 10,5 km/h (2 Bft) 100,00 %
13.12.2016 06:18 4,4 C 5,0 C 3,3 C 96 % 0 lf 1023,2 hPa 0,0 l/m 0 min 0 min 0 W/m 8,4 km/h (2 Bft) 100,00 %
13.12.2016 06:20 4,4 C 5,0 C 3,3 C 96 % 0 lf 1023,2 hPa 0,0 l/m 0 min 0 min 0 W/m 8,4 km/h (2 Bft) 100,00 %
13.12.2016 06:22 4,4 C 5,0 C 3,3 C 96 % 0 lf 1023,2 hPa 0,0 l/m 0 min 0 min 0 W/m 4,2 km/h (1 Bft) 93,62 %
13.12.2016 06:24 4,4 C 5,0 C 3,3 C 96 % 0 lf 1023,3 hPa 0,0 l/m 0 min 0 min 0 W/m 6,3 km/h (2 Bft) 97,87 %
13.12.2016 06:26 4,4 C 5,0 C 3,3 C 96 % 0 lf 1023,2 hPa 0,0 l/m 0 min 0 min 0 W/m 8,4 km/h (2 Bft) 97,87 %
13.12.2016 06:28 4,4 C 5,0 C 3,3 C 96 % 0 lf 1023,2 hPa 0,0 l/m 0 min 0 min 0 W/m 8,4 km/h (2 Bft) 95,65 %
13.12.2016 06:30 4,4 C 5,0 C 3,9 C 96 % 0 lf 1023,2 hPa 0,0 l/m 0 min 0 min 0 W/m 8,4 km/h (2 Bft) 95,74 %
13.12.2016 06:32 4,5 C 5,0 C 3,9 C 96 % 0 lf 1023,2 hPa 0,0 l/m 0 min 0 min 0 W/m 6,3 km/h (2 Bft) 95,74 %
13.12.2016 06:34 4,5 C 5,0 C 3,9 C 96 % 0 lf 1023,2 hPa 0,0 l/m 0 min 0 min 0 W/m 4,2 km/h (1 Bft) 95,74 %
13.12.2016 06:36 4,5 C 5,0 C 3,9 C 96 % 0 lf 1023,1 hPa 0,0 l/m 0 min 0 min 0 W/m 6,3 km/h (2 Bft) 95,74 %
13.12.2016 06:38 4,5 C 5,0 C 3,9 C 96 % 0 lf 1023,2 hPa 0,0 l/m 0 min 0 min 0 W/m 6,3 km/h (2 Bft) 89,36 %
13.12.2016 06:40 4,5 C 5,0 C 3,9 C 96 % 0 lf 1023,1 hPa 0,0 l/m 0 min 0 min 0 W/m 6,3 km/h (2 Bft) 93,48 %
13.12.2016 06:42 4,5 C 5,0 C 3,9 C 96 % 0 lf 1023,1 hPa 0,0 l/m 0 min 0 min 0 W/m 8,4 km/h (2 Bft) 95,74 %
13.12.2016 06:44 4,6 C 5,0 C 3,9 C 96 % 0 lf 1023,1 hPa 0,0 l/m 0 min 0 min 0 W/m 6,3 km/h (2 Bft) 93,62 %
13.12.2016 06:46 4,6 C 5,0 C 3,9 C 95 % 0 lf 1023,0 hPa 0,0 l/m 0 min 0 min 0 W/m 10,5 km/h (2 Bft) 93,62 %
13.12.2016 06:48 4,6 C 5,0 C 3,9 C 95 % 0 lf 1023,0 hPa 0,0 l/m 0 min 0 min 0 W/m 8,4 km/h (2 Bft) 95,74 %
13.12.2016 06:50 4,6 C 5,0 C 3,9 C 95 % 0 lf 1023,1 hPa 0,0 l/m 0 min 0 min 0 W/m 6,3 km/h (2 Bft) 91,49 %
13.12.2016 06:52 4,6 C 5,0 C 3,9 C 95 % 0 lf 1023,1 hPa 0,0 l/m 0 min 0 min 0 W/m 6,3 km/h (2 Bft) 91,30 %
13.12.2016 06:54 4,6 C 5,0 C 3,9 C 95 % 0 lf 1023,1 hPa 0,0 l/m 0 min 0 min 0 W/m 8,4 km/h (2 Bft) 87,23 %
13.12.2016 06:56 4,6 C 5,0 C 3,9 C 95 % 0 lf 1023,1 hPa 0,0 l/m 0 min 0 min 0 W/m 6,3 km/h (2 Bft) 91,49 %
13.12.2016 06:58 4,6 C 5,0 C 3,9 C 95 % 0 lf 1023,1 hPa 0,0 l/m 0 min 0 min 0 W/m 6,3 km/h (2 Bft) 89,36 %
13.12.2016 07:00 4,7 C 5,0 C 3,9 C 95 % 0 lf 1023,1 hPa 0,0 l/m 0 min 0 min 0 W/m 10,5 km/h (2 Bft) 91,49 %
13.12.2016 07:02 4,7 C 5,0 C 3,9 C 95 % 0 lf 1023,0 hPa 0,0 l/m 0 min 0 min 0 W/m 8,4 km/h (2 Bft) 87,23 %
13.12.2016 07:04 4,7 C 5,0 C 3,9 C 95 % 0 lf 1023,1 hPa 0,0 l/m 0 min 0 min 0 W/m 8,4 km/h (2 Bft) 91,30 %
13.12.2016 07:06 4,7 C 5,0 C 3,9 C 95 % 0 lf 1023,1 hPa 0,0 l/m 0 min 0 min 0 W/m 6,3 km/h (2 Bft) 91,49 %
13.12.2016 07:08 4,7 C 5,0 C 3,9 C 95 % 0 lf 1023,2 hPa 0,0 l/m 0 min 0 min 0 W/m 10,5 km/h (2 Bft) 87,23 %
13.12.2016 07:10 4,7 C 5,0 C 3,9 C 95 % 0 lf 1023,1 hPa 0,0 l/m 0 min 0 min 0 W/m 10,5 km/h (2 Bft) 91,49 %
13.12.2016 07:12 4,7 C 5,0 C 3,9 C 95 % 0 lf 1023,1 hPa 0,0 l/m 0 min 0 min 0 W/m 8,4 km/h (2 Bft) 89,36 %
13.12.2016 07:14 4,7 C 5,0 C 3,9 C 95 % 0 lf 1023,1 hPa 0,0 l/m 0 min 0 min 0 W/m 10,5 km/h (2 Bft) 93,62 %
13.12.2016 07:16 4,7 C 5,0 C 3,9 C 95 % 0 lf 1023,1 hPa 0,0 l/m 0 min 0 min 0 W/m 10,5 km/h (2 Bft) 93,62 %
13.12.2016 07:18 4,7 C 5,0 C 3,9 C 95 % 0 lf 1023,1 hPa 0,0 l/m 0 min 0 min 0 W/m 8,4 km/h (2 Bft) 93,48 %
13.12.2016 07:20 4,8 C 5,6 C 3,9 C 95 % 0 lf 1023,0 hPa 0,0 l/m 0 min 0 min 0 W/m 10,5 km/h (2 Bft) 97,87 %
13.12.2016 07:22 4,8 C 5,6 C 3,9 C 95 % 0 lf 1023,1 hPa 0,0 l/m 0 min 0 min 0 W/m 10,5 km/h (2 Bft) 95,74 %
13.12.2016 07:24 4,8 C 5,6 C 3,9 C 95 % 0 lf 1023,1 hPa 0,0 l/m 0 min 0 min 0 W/m 8,4 km/h (2 Bft) 87,23 %
13.12.2016 07:26 4,8 C 5,6 C 3,9 C 95 % 0 lf 1023,1 hPa 0,0 l/m 0 min 0 min 0 W/m 6,3 km/h (2 Bft) 93,48 %
13.12.2016 07:28 4,8 C 5,6 C 3,9 C 95 % 0 lf 1023,1 hPa 0,0 l/m 0 min 0 min 0 W/m 8,4 km/h (2 Bft) 97,87 %
13.12.2016 07:30 4,8 C 5,6 C 3,9 C 95 % 0 lf 1023,1 hPa 0,0 l/m 0 min 0 min 0 W/m 6,3 km/h (2 Bft) 95,74 %
13.12.2016 07:32 4,8 C 5,6 C 3,9 C 95 % 0 lf 1023,0 hPa 0,0 l/m 0 min 0 min 0 W/m 8,4 km/h (2 Bft) 95,74 %
13.12.2016 07:34 4,8 C 5,6 C 3,9 C 95 % 0 lf 1023,1 hPa 0,0 l/m 0 min 0 min 0 W/m 10,5 km/h (2 Bft) 97,87 %
13.12.2016 07:36 4,8 C 5,6 C 3,9 C 95 % 0 lf 1023,0 hPa 0,0 l/m 0 min 0 min 0 W/m 10,5 km/h (2 Bft) 93,62 %
13.12.2016 07:38 4,8 C 5,6 C 3,9 C 95 % 0 lf 1023,0 hPa 0,0 l/m 0 min 0 min 0 W/m 8,4 km/h (2 Bft) 97,83 %
13.12.2016 07:40 4,8 C 5,6 C 3,9 C 95 % 0 lf 1023,0 hPa 0,0 l/m 0 min 0 min 0 W/m 8,4 km/h (2 Bft) 95,74 %
13.12.2016 07:42 4,9 C 5,6 C 3,9 C 95 % 0 lf 1023,1 hPa 0,0 l/m 0 min 0 min 0 W/m 10,5 km/h (2 Bft) 95,74 %
13.12.2016 07:44 4,9 C 5,6 C 3,9 C 95 % 0 lf 1023,1 hPa 0,0 l/m 0 min 0 min 0 W/m 8,4 km/h (2 Bft) 93,62 %
13.12.2016 07:46 4,9 C 5,6 C 3,9 C 94 % 0 lf 1023,1 hPa 0,0 l/m 0 min 0 min 0 W/m 10,5 km/h (2 Bft) 97,87 %
13.12.2016 07:48 4,9 C 5,6 C 3,9 C 94 % 0 lf 1023,2 hPa 0,0 l/m 0 min 0 min 0 W/m 10,5 km/h (2 Bft) 97,87 %
13.12.2016 07:50 4,9 C 5,6 C 3,9 C 94 % 0 lf 1023,2 hPa 0,0 l/m 0 min 0 min 0 W/m 6,3 km/h (2 Bft) 95,65 %
13.12.2016 07:52 4,9 C 5,6 C 3,9 C 94 % 0 lf 1023,1 hPa 0,0 l/m 0 min 0 min 0 W/m 12,6 km/h (3 Bft) 97,87 %
13.12.2016 07:54 4,9 C 5,0 C 3,9 C 94 % 0 lf 1023,1 hPa 0,0 l/m 0 min 0 min 0 W/m 8,4 km/h (2 Bft) 93,62 %
13.12.2016 07:56 4,9 C 5,0 C 3,9 C 94 % 0 lf 1023,1 hPa 0,0 l/m 0 min 0 min 0 W/m 10,5 km/h (2 Bft) 97,87 %
13.12.2016 07:58 4,9 C 5,0 C 3,9 C 94 % 0 lf 1023,2 hPa 0,0 l/m 0 min 0 min 0 W/m 10,5 km/h (2 Bft) 97,87 %
13.12.2016 08:00 4,9 C 5,6 C 3,9 C 94 % 0 lf 1023,1 hPa 0,0 l/m 0 min 0 min 0 W/m 10,5 km/h (2 Bft) 100,00 %
13.12.2016 08:02 4,9 C 5,6 C 3,9 C 94 % 0 lf 1023,2 hPa 0,0 l/m 0 min 0 min 0 W/m 8,4 km/h (2 Bft) 97,83 %
13.12.2016 08:04 4,9 C 5,6 C 3,9 C 94 % 1 lf 1023,2 hPa 0,0 l/m 0 min 0 min 0 W/m 10,5 km/h (2 Bft) 97,87 %
13.12.2016 08:06 4,9 C 5,6 C 3,9 C 94 % 1 lf 1023,2 hPa 0,0 l/m 0 min 0 min 0 W/m 8,4 km/h (2 Bft) 95,74 %
13.12.2016 08:08 4,9 C 5,6 C 3,9 C 94 % 0 lf 1023,2 hPa 0,0 l/m 0 min 0 min 0 W/m 8,4 km/h (2 Bft) 100,00 %
13.12.2016 08:10 4,9 C 5,0 C 3,9 C 94 % 1 lf 1023,3 hPa 0,0 l/m 0 min 2 min 0 W/m 8,4 km/h (2 Bft) 95,74 %
13.12.2016 08:12 4,9 C 5,0 C 3,9 C 94 % 1 lf 1023,2 hPa 0,0 l/m 0 min 2 min 0 W/m 10,5 km/h (2 Bft) 95,74 %
13.12.2016 08:14 4,9 C 5,0 C 3,9 C 94 % 1 lf 1023,2 hPa 0,0 l/m 0 min 2 min 0 W/m 8,4 km/h (2 Bft) 100,00 %
13.12.2016 08:16 5,0 C 5,0 C 3,9 C 94 % 1 lf 1023,3 hPa 0,0 l/m 0 min 2 min 0 W/m 6,3 km/h (2 Bft) 100,00 %
13.12.2016 08:18 5,0 C 5,0 C 3,3 C 94 % 1 lf 1023,3 hPa 0,0 l/m 0 min 2 min 0 W/m 8,4 km/h (2 Bft) 100,00 %
13.12.2016 08:20 5,0 C 5,0 C 3,3 C 94 % 1 lf 1023,3 hPa 0,0 l/m 0 min 2 min 0 W/m 8,4 km/h (2 Bft) 97,87 %
13.12.2016 08:22 5,0 C 5,0 C 3,3 C 94 % 3 lf 1023,3 hPa 0,2 l/m 0 min 2 min 0 W/m 6,3 km/h (2 Bft) 93,62 %
13.12.2016 08:24 5,0 C 4,4 C 3,3 C 94 % 2 lf 1023,4 hPa 0,0 l/m 0 min 2 min 0 W/m 10,5 km/h (2 Bft) 97,87 %
13.12.2016 08:26 5,0 C 4,4 C 3,3 C 94 % 3 lf 1023,3 hPa 0,0 l/m 0 min 2 min 0 W/m 8,4 km/h (2 Bft) 97,83 %
13.12.2016 08:28 5,0 C 4,4 C 3,3 C 94 % 3 lf 1023,4 hPa 0,0 l/m 0 min 2 min 5 W/m 8,4 km/h (2 Bft) 97,87 %
13.12.2016 08:30 5,0 C 4,4 C 3,3 C 94 % 4 lf 1023,3 hPa 0,0 l/m 0 min 2 min 5 W/m 8,4 km/h (2 Bft) 97,87 %
13.12.2016 08:32 5,0 C 4,4 C 3,3 C 94 % 4 lf 1023,4 hPa 0,0 l/m 0 min 2 min 5 W/m 6,3 km/h (2 Bft) 100,00 %
13.12.2016 08:34 5,0 C 4,4 C 3,3 C 94 % 4 lf 1023,4 hPa 0,2 l/m 0 min 2 min 5 W/m 6,3 km/h (2 Bft) 97,87 %
13.12.2016 08:36 5,1 C 4,4 C 3,3 C 94 % 5 lf 1023,5 hPa 0,0 l/m 0 min 2 min 5 W/m 6,3 km/h (2 Bft) 100,00 %
13.12.2016 08:38 5,0 C 4,4 C 3,3 C 94 % 8 lf 1023,4 hPa 0,0 l/m 0 min 2 min 5 W/m 8,4 km/h (2 Bft) 97,87 %
13.12.2016 08:40 5,0 C 4,4 C 3,3 C 94 % 12 lf 1023,4 hPa 0,0 l/m 0 min 2 min 5 W/m 6,3 km/h (2 Bft) 100,00 %
13.12.2016 08:42 5,0 C 4,4 C 3,3 C 94 % 13 lf 1023,5 hPa 0,0 l/m 0 min 2 min 5 W/m 8,4 km/h (2 Bft) 97,87 %
13.12.2016 08:44 5,0 C 4,4 C 3,3 C 94 % 14 lf 1023,5 hPa 0,2 l/m 0 min 2 min 5 W/m 4,2 km/h (1 Bft) 95,74 %
13.12.2016 08:46 5,0 C 4,4 C 3,3 C 94 % 14 lf 1023,5 hPa 0,0 l/m 0 min 2 min 5 W/m 10,5 km/h (2 Bft) 100,00 %
13.12.2016 08:48 5,0 C 4,4 C 3,3 C 94 % 14 lf 1023,5 hPa 0,2 l/m 0 min 2 min 5 W/m 6,3 km/h (2 Bft) 97,83 %
13.12.2016 08:50 5,0 C 4,4 C 3,3 C 95 % 14 lf 1023,5 hPa 0,0 l/m 0 min 2 min 5 W/m 10,5 km/h (2 Bft) 97,87 %
13.12.2016 08:52 5,0 C 4,4 C 3,3 C 95 % 15 lf 1023,5 hPa 0,2 l/m 0 min 2 min 7 W/m 6,3 km/h (2 Bft) 97,87 %
13.12.2016 08:54 5,0 C 4,4 C 3,3 C 95 % 15 lf 1023,5 hPa 0,0 l/m 0 min 2 min 7 W/m 6,3 km/h (2 Bft) 97,87 %
13.12.2016 08:56 5,0 C 4,4 C 3,3 C 95 % 15 lf 1023,5 hPa 0,0 l/m 0 min 2 min 8 W/m 6,3 km/h (2 Bft) 95,74 %
13.12.2016 08:58 5,0 C 4,4 C 3,3 C 95 % 15 lf 1023,4 hPa 0,0 l/m 0 min 2 min 9 W/m 6,3 km/h (2 Bft) 95,74 %
13.12.2016 09:00 5,0 C 4,4 C 3,3 C 95 % 15 lf 1023,4 hPa 0,0 l/m 0 min 0 min 9 W/m 6,3 km/h (2 Bft) 93,48 %
13.12.2016 09:02 5,0 C 4,4 C 3,3 C 95 % 15 lf 1023,4 hPa 0,0 l/m 0 min 0 min 8 W/m 6,3 km/h (2 Bft) 97,87 %
13.12.2016 09:04 5,0 C 5,0 C 3,3 C 95 % 15 lf 1023,5 hPa 0,0 l/m 0 min 2 min 7 W/m 8,4 km/h (2 Bft) 93,62 %
13.12.2016 09:06 5,0 C 4,4 C 3,3 C 95 % 15 lf 1023,5 hPa 0,0 l/m 0 min 2 min 7 W/m 8,4 km/h (2 Bft) 93,62 %
13.12.2016 09:08 5,0 C 4,4 C 3,3 C 95 % 15 lf 1023,4 hPa 0,0 l/m 0 min 2 min 7 W/m 6,3 km/h (2 Bft) 95,74 %
13.12.2016 09:10 5,0 C 5,0 C 3,3 C 95 % 15 lf 1023,4 hPa 0,0 l/m 0 min 2 min 7 W/m 6,3 km/h (2 Bft) 95,74 %
13.12.2016 09:12 5,0 C 5,0 C 3,3 C 95 % 15 lf 1023,4 hPa 0,0 l/m 0 min 2 min 7 W/m 8,4 km/h (2 Bft) 93,48 %
13.12.2016 09:14 5,0 C 5,0 C 3,3 C 95 % 15 lf 1023,4 hPa 0,0 l/m 0 min 2 min 9 W/m 6,3 km/h (2 Bft) 97,87 %
13.12.2016 09:16 5,0 C 5,0 C 3,9 C 95 % 15 lf 1023,5 hPa 0,2 l/m 0 min 2 min 9 W/m 4,2 km/h (1 Bft) 95,74 %
13.12.2016 09:18 5,0 C 5,0 C 3,9 C 95 % 15 lf 1023,5 hPa 0,0 l/m 0 min 2 min 10 W/m 6,3 km/h (2 Bft) 95,74 %
13.12.2016 09:20 5,0 C 5,0 C 3,3 C 95 % 15 lf 1023,5 hPa 0,0 l/m 0 min 2 min 11 W/m 8,4 km/h (2 Bft) 95,74 %
13.12.2016 09:22 5,0 C 5,0 C 3,9 C 95 % 15 lf 1023,5 hPa 0,2 l/m 0 min 2 min 11 W/m 8,4 km/h (2 Bft) 91,49 %
13.12.2016 09:24 5,0 C 5,0 C 3,9 C 95 % 15 lf 1023,5 hPa 0,0 l/m 0 min 2 min 12 W/m 8,4 km/h (2 Bft) 95,65 %
13.12.2016 09:26 5,0 C 5,0 C 3,9 C 95 % 15 lf 1023,5 hPa 0,2 l/m 0 min 2 min 12 W/m 8,4 km/h (2 Bft) 93,62 %
13.12.2016 09:28 5,0 C 5,0 C 3,9 C 95 % 15 lf 1023,5 hPa 0,0 l/m 0 min 2 min 12 W/m 8,4 km/h (2 Bft) 93,62 %
13.12.2016 09:30 4,9 C 5,0 C 3,9 C 95 % 15 lf 1023,5 hPa 0,0 l/m 0 min 2 min 12 W/m 8,4 km/h (2 Bft) 93,62 %
13.12.2016 09:32 4,9 C 5,0 C 3,9 C 95 % 15 lf 1023,5 hPa 0,2 l/m 0 min 2 min 11 W/m 6,3 km/h (2 Bft) 93,62 %
13.12.2016 09:34 4,9 C 5,0 C 3,9 C 95 % 15 lf 1023,5 hPa 0,0 l/m 0 min 2 min 11 W/m 8,4 km/h (2 Bft) 91,49 %
13.12.2016 09:36 4,9 C 5,0 C 3,9 C 95 % 15 lf 1023,5 hPa 0,0 l/m 0 min 2 min 11 W/m 8,4 km/h (2 Bft) 95,65 %
13.12.2016 09:38 4,9 C 5,0 C 3,9 C 95 % 15 lf 1023,5 hPa 0,0 l/m 0 min 2 min 11 W/m 8,4 km/h (2 Bft) 93,62 %
13.12.2016 09:40 4,9 C 5,0 C 3,9 C 96 % 15 lf 1023,5 hPa 0,0 l/m 0 min 2 min 12 W/m 8,4 km/h (2 Bft) 95,74 %
13.12.2016 09:42 4,9 C 5,0 C 3,9 C 96 % 15 lf 1023,5 hPa 0,0 l/m 0 min 2 min 12 W/m 6,3 km/h (2 Bft) 95,74 %
13.12.2016 09:44 4,9 C 5,0 C 3,9 C 96 % 15 lf 1023,5 hPa 0,0 l/m 0 min 2 min 14 W/m 8,4 km/h (2 Bft) 89,36 %
13.12.2016 09:46 4,9 C 5,0 C 3,9 C 96 % 15 lf 1023,5 hPa 0,0 l/m 0 min 2 min 14 W/m 6,3 km/h (2 Bft) 95,74 %
13.12.2016 09:48 4,9 C 5,0 C 3,9 C 96 % 15 lf 1023,5 hPa 0,0 l/m 0 min 2 min 17 W/m 6,3 km/h (2 Bft) 95,65 %
13.12.2016 09:50 4,9 C 5,0 C 3,9 C 96 % 15 lf 1023,5 hPa 0,0 l/m 0 min 0 min 19 W/m 8,4 km/h (2 Bft) 91,49 %
13.12.2016 09:52 4,9 C 5,0 C 3,9 C 96 % 15 lf 1023,5 hPa 0,0 l/m 0 min 0 min 19 W/m 6,3 km/h (2 Bft) 97,87 %
13.12.2016 09:54 4,9 C 5,0 C 3,9 C 96 % 15 lf 1023,5 hPa 0,0 l/m 0 min 0 min 19 W/m 6,3 km/h (2 Bft) 100,00 %
13.12.2016 09:56 4,9 C 5,0 C 3,9 C 96 % 15 lf 1023,5 hPa 0,0 l/m 0 min 0 min 18 W/m 6,3 km/h (2 Bft) 95,74 %
13.12.2016 09:58 4,9 C 5,0 C 3,9 C 96 % 15 lf 1023,5 hPa 0,0 l/m 0 min 0 min 16 W/m 6,3 km/h (2 Bft) 95,65 %
13.12.2016 10:00 4,9 C 5,0 C 3,9 C 96 % 15 lf 1023,5 hPa 0,0 l/m 0 min 0 min 15 W/m 6,3 km/h (2 Bft) 97,87 %
13.12.2016 10:02 4,9 C 5,0 C 3,9 C 96 % 15 lf 1023,5 hPa 0,0 l/m 0 min 0 min 15 W/m 6,3 km/h (2 Bft) 95,74 %
13.12.2016 10:04 4,9 C 5,0 C 3,9 C 96 % 15 lf 1023,6 hPa 0,0 l/m 0 min 0 min 16 W/m 8,4 km/h (2 Bft) 95,74 %
13.12.2016 10:06 4,9 C 5,0 C 3,9 C 96 % 15 lf 1023,5 hPa 0,0 l/m 0 min 0 min 16 W/m 6,3 km/h (2 Bft) 95,74 %
13.12.2016 10:08 5,0 C 5,0 C 3,9 C 96 % 15 lf 1023,6 hPa 0,0 l/m 0 min 0 min 16 W/m 8,4 km/h (2 Bft) 87,23 %
13.12.2016 10:10 5,0 C 5,0 C 3,9 C 96 % 15 lf 1023,5 hPa 0,0 l/m 0 min 0 min 17 W/m 6,3 km/h (2 Bft) 95,65 %
13.12.2016 10:12 5,0 C 5,0 C 3,9 C 96 % 15 lf 1023,6 hPa 0,0 l/m 0 min 0 min 18 W/m 6,3 km/h (2 Bft) 100,00 %
13.12.2016 10:14 5,0 C 5,0 C 3,9 C 96 % 15 lf 1023,6 hPa 0,0 l/m 0 min 0 min 18 W/m 8,4 km/h (2 Bft) 95,74 %
13.12.2016 10:16 5,0 C 5,0 C 3,9 C 96 % 15 lf 1023,6 hPa 0,0 l/m 0 min 0 min 18 W/m 10,5 km/h (2 Bft) 100,00 %
13.12.2016 10:18 5,0 C 5,0 C 3,9 C 96 % 15 lf 1023,6 hPa 0,0 l/m 0 min 0 min 18 W/m 10,5 km/h (2 Bft) 100,00 %
13.12.2016 10:20 5,0 C 5,0 C 3,9 C 96 % 15 lf 1023,6 hPa 0,0 l/m 0 min 0 min 19 W/m 8,4 km/h (2 Bft) 100,00 %
13.12.2016 10:22 5,0 C 5,0 C 3,9 C 96 % 15 lf 1023,7 hPa 0,0 l/m 0 min 0 min 22 W/m 6,3 km/h (2 Bft) 95,65 %
13.12.2016 10:24 5,1 C 5,0 C 3,9 C 96 % 15 lf 1023,5 hPa 0,0 l/m 0 min 0 min 25 W/m 8,4 km/h (2 Bft) 95,74 %
13.12.2016 10:26 5,1 C 5,0 C 3,9 C 96 % 15 lf 1023,6 hPa 0,0 l/m 0 min 0 min 32 W/m 10,5 km/h (2 Bft) 93,62 %
13.12.2016 10:28 5,1 C 5,0 C 4,4 C 96 % 15 lf 1023,6 hPa 0,0 l/m 0 min 0 min 38 W/m 8,4 km/h (2 Bft) 100,00 %
13.12.2016 10:30 5,1 C 5,0 C 4,4 C 96 % 15 lf 1023,5 hPa 0,0 l/m 0 min 0 min 42 W/m 8,4 km/h (2 Bft) 93,62 %
13.12.2016 10:32 5,1 C 5,6 C 4,4 C 97 % 15 lf 1023,5 hPa 0,0 l/m 0 min 0 min 46 W/m 6,3 km/h (2 Bft) 95,74 %
13.12.2016 10:34 5,1 C 5,6 C 4,4 C 97 % 15 lf 1023,6 hPa 0,0 l/m 0 min 0 min 53 W/m 6,3 km/h (2 Bft) 97,83 %
13.12.2016 10:36 5,1 C 5,6 C 4,4 C 96 % 15 lf 1023,5 hPa 0,0 l/m 0 min 0 min 63 W/m 10,5 km/h (2 Bft) 100,00 %
13.12.2016 10:38 5,1 C 5,6 C 4,4 C 97 % 15 lf 1023,6 hPa 0,0 l/m 0 min 0 min 65 W/m 8,4 km/h (2 Bft) 97,87 %
13.12.2016 10:40 5,1 C 5,6 C 4,4 C 97 % 14 lf 1023,6 hPa 0,0 l/m 0 min 0 min 68 W/m 8,4 km/h (2 Bft) 95,74 %
13.12.2016 10:42 5,2 C 5,6 C 4,4 C 97 % 14 lf 1023,6 hPa 0,0 l/m 0 min 0 min 67 W/m 8,4 km/h (2 Bft) 93,62 %
13.12.2016 10:44 5,2 C 5,6 C 5,0 C 97 % 14 lf 1023,5 hPa 0,0 l/m 0 min 0 min 78 W/m 10,5 km/h (2 Bft) 97,87 %
13.12.2016 10:46 5,2 C 5,6 C 5,0 C 97 % 14 lf 1023,6 hPa 0,0 l/m 0 min 0 min 88 W/m 6,3 km/h (2 Bft) 97,83 %
13.12.2016 10:48 5,2 C 5,6 C 5,0 C 97 % 14 lf 1023,6 hPa 0,0 l/m 0 min 0 min 81 W/m 6,3 km/h (2 Bft) 97,87 %
13.12.2016 10:50 5,3 C 5,6 C 5,0 C 97 % 13 lf 1023,6 hPa 0,0 l/m 0 min 2 min 83 W/m 10,5 km/h (2 Bft) 97,87 %
13.12.2016 10:52 5,3 C 6,1 C 5,0 C 97 % 14 lf 1023,6 hPa 0,0 l/m 0 min 2 min 83 W/m 10,5 km/h (2 Bft) 97,87 %
13.12.2016 10:54 5,3 C 5,6 C 5,0 C 97 % 13 lf 1023,6 hPa 0,0 l/m 0 min 2 min 83 W/m 10,5 km/h (2 Bft) 100,00 %
13.12.2016 10:56 5,3 C 5,6 C 5,0 C 97 % 13 lf 1023,5 hPa 0,0 l/m 0 min 2 min 81 W/m 12,6 km/h (3 Bft) 97,83 %
13.12.2016 10:58 5,4 C 5,6 C 5,0 C 97 % 13 lf 1023,5 hPa 0,0 l/m 0 min 2 min 77 W/m 6,3 km/h (2 Bft) 97,87 %
13.12.2016 11:00 5,4 C 5,6 C 5,0 C 97 % 13 lf 1023,5 hPa 0,0 l/m 0 min 2 min 80 W/m 8,4 km/h (2 Bft) 93,62 %
13.12.2016 11:02 5,4 C 5,6 C 5,0 C 97 % 12 lf 1023,5 hPa 0,0 l/m 0 min 2 min 86 W/m 10,5 km/h (2 Bft) 95,74 %
13.12.2016 11:04 5,4 C 5,6 C 5,0 C 97 % 11 lf 1023,5 hPa 0,0 l/m 0 min 2 min 82 W/m 12,6 km/h (3 Bft) 93,62 %
13.12.2016 11:06 5,5 C 5,6 C 5,0 C 97 % 10 lf 1023,5 hPa 0,2 l/m 0 min 2 min 68 W/m 8,4 km/h (2 Bft) 95,74 %
13.12.2016 11:08 5,5 C 5,6 C 5,0 C 97 % 10 lf 1023,5 hPa 0,0 l/m 0 min 2 min 56 W/m 8,4 km/h (2 Bft) 95,65 %
13.12.2016 11:10 5,5 C 5,6 C 5,0 C 97 % 10 lf 1023,5 hPa 0,0 l/m 0 min 2 min 46 W/m 10,5 km/h (2 Bft) 93,62 %
13.12.2016 11:12 5,5 C 5,6 C 5,0 C 97 % 9 lf 1023,5 hPa 0,0 l/m 0 min 2 min 47 W/m 10,5 km/h (2 Bft) 95,74 %
13.12.2016 11:14 5,5 C 5,6 C 4,4 C 97 % 7 lf 1023,6 hPa 0,0 l/m 0 min 2 min 48 W/m 10,5 km/h (2 Bft) 97,87 %
13.12.2016 11:16 5,5 C 5,6 C 5,0 C 97 % 7 lf 1023,6 hPa 0,0 l/m 0 min 2 min 51 W/m 8,4 km/h (2 Bft) 93,62 %
13.12.2016 11:18 5,5 C 5,6 C 5,0 C 97 % 6 lf 1023,6 hPa 0,0 l/m 0 min 2 min 47 W/m 8,4 km/h (2 Bft) 95,74 %
13.12.2016 11:20 5,5 C 5,6 C 5,0 C 97 % 4 lf 1023,5 hPa 0,0 l/m 0 min 2 min 43 W/m 4,2 km/h (1 Bft) 97,83 %
13.12.2016 11:22 5,6 C 5,6 C 5,0 C 97 % 4 lf 1023,6 hPa 0,0 l/m 0 min 0 min 39 W/m 10,5 km/h (2 Bft) 97,87 %
13.12.2016 11:24 5,6 C 5,6 C 5,0 C 97 % 4 lf 1023,6 hPa 0,0 l/m 0 min 0 min 36 W/m 8,4 km/h (2 Bft) 95,74 %
13.12.2016 11:26 5,6 C 5,6 C 4,4 C 97 % 3 lf 1023,5 hPa 0,0 l/m 0 min 0 min 35 W/m 10,5 km/h (2 Bft) 93,62 %
13.12.2016 11:28 5,6 C 5,6 C 5,0 C 97 % 3 lf 1023,5 hPa 0,0 l/m 0 min 0 min 38 W/m 8,4 km/h (2 Bft) 95,74 %
13.12.2016 11:30 5,6 C 5,6 C 5,0 C 97 % 3 lf 1023,5 hPa 0,0 l/m 0 min 0 min 44 W/m 8,4 km/h (2 Bft) 97,87 %
13.12.2016 11:32 5,6 C 5,6 C 5,0 C 97 % 3 lf 1023,5 hPa 0,0 l/m 0 min 0 min 48 W/m 8,4 km/h (2 Bft) 97,83 %
13.12.2016 11:34 5,6 C 5,6 C 5,0 C 97 % 3 lf 1023,5 hPa 0,0 l/m 0 min 0 min 49 W/m 8,4 km/h (2 Bft) 91,49 %
13.12.2016 11:36 5,6 C 5,6 C 5,0 C 97 % 3 lf 1023,6 hPa 0,0 l/m 0 min 0 min 47 W/m 8,4 km/h (2 Bft) 97,87 %
13.12.2016 11:38 5,6 C 5,6 C 5,0 C 97 % 2 lf 1023,5 hPa 0,0 l/m 0 min 0 min 43 W/m 8,4 km/h (2 Bft) 91,49 %
13.12.2016 11:40 5,6 C 5,6 C 5,0 C 97 % 2 lf 1023,5 hPa 0,0 l/m 0 min 0 min 34 W/m 10,5 km/h (2 Bft) 95,74 %
13.12.2016 11:42 5,6 C 5,6 C 5,0 C 97 % 2 lf 1023,5 hPa 0,0 l/m 0 min 0 min 31 W/m 8,4 km/h (2 Bft) 95,74 %
13.12.2016 11:44 5,6 C 5,6 C 5,0 C 97 % 2 lf 1023,5 hPa 0,0 l/m 0 min 0 min 31 W/m 8,4 km/h (2 Bft) 91,30 %
13.12.2016 11:46 5,7 C 6,1 C 5,0 C 97 % 1 lf 1023,5 hPa 0,0 l/m 0 min 0 min 36 W/m 6,3 km/h (2 Bft) 93,62 %
13.12.2016 11:48 5,7 C 6,1 C 5,0 C 97 % 1 lf 1023,4 hPa 0,0 l/m 0 min 2 min 38 W/m 6,3 km/h (2 Bft) 95,74 %
13.12.2016 11:50 5,7 C 6,1 C 5,0 C 97 % 1 lf 1023,4 hPa 0,0 l/m 0 min 2 min 42 W/m 8,4 km/h (2 Bft) 93,62 %
13.12.2016 11:52 5,7 C 6,1 C 5,0 C 98 % 3 lf 1023,5 hPa 0,0 l/m 0 min 0 min 47 W/m 6,3 km/h (2 Bft) 91,49 %
13.12.2016 11:54 5,7 C 6,1 C 5,0 C 98 % 4 lf 1023,5 hPa 0,0 l/m 0 min 2 min 51 W/m 6,3 km/h (2 Bft) 95,65 %
13.12.2016 11:56 5,7 C 6,1 C 5,0 C 98 % 11 lf 1023,4 hPa 0,0 l/m 0 min 2 min 56 W/m 6,3 km/h (2 Bft) 95,74 %
13.12.2016 11:58 5,7 C 6,1 C 5,0 C 98 % 13 lf 1023,4 hPa 0,0 l/m 0 min 0 min 63 W/m 6,3 km/h (2 Bft) 91,49 %
13.12.2016 12:00 5,8 C 6,1 C 5,6 C 98 % 12 lf 1023,4 hPa 0,0 l/m 0 min 0 min 68 W/m 10,5 km/h (2 Bft) 95,74 %
13.12.2016 12:02 5,8 C 6,1 C 5,6 C 98 % 12 lf 1023,4 hPa 0,0 l/m 0 min 2 min 65 W/m 8,4 km/h (2 Bft) 95,74 %
13.12.2016 12:06 5,8 C 6,1 C 5,6 C 98 % 12 lf 1023,4 hPa 0,0 l/m 0 min 0 min 63 W/m 6,3 km/h (2 Bft) 93,55 %
13.12.2016 12:08 5,8 C 6,1 C 5,6 C 98 % 11 lf 1023,5 hPa 0,0 l/m 0 min 0 min 65 W/m 8,4 km/h (2 Bft) 93,62 %
13.12.2016 12:10 5,9 C 6,1 C 5,6 C 98 % 10 lf 1023,5 hPa 0,0 l/m 0 min 0 min 69 W/m 4,2 km/h (1 Bft) 95,74 %
13.12.2016 12:12 5,9 C 6,1 C 5,6 C 98 % 9 lf 1023,5 hPa 0,0 l/m 0 min 0 min 71 W/m 6,3 km/h (2 Bft) 97,87 %
13.12.2016 12:14 5,9 C 6,1 C 5,6 C 98 % 8 lf 1023,4 hPa 0,0 l/m 0 min 0 min 79 W/m 8,4 km/h (2 Bft) 93,62 %
13.12.2016 12:16 5,9 C 6,1 C 5,6 C 98 % 6 lf 1023,4 hPa 0,0 l/m 0 min 0 min 82 W/m 8,4 km/h (2 Bft) 95,74 %
13.12.2016 12:18 5,9 C 6,7 C 5,6 C 98 % 5 lf 1023,4 hPa 0,2 l/m 0 min 0 min 91 W/m 8,4 km/h (2 Bft) 97,87 %
13.12.2016 12:20 6,0 C 6,7 C 5,6 C 98 % 5 lf 1023,4 hPa 0,0 l/m 0 min 0 min 97 W/m 6,3 km/h (2 Bft) 93,48 %
13.12.2016 12:22 6,0 C 6,7 C 6,1 C 98 % 4 lf 1023,4 hPa 0,0 l/m 0 min 0 min 101 W/m 6,3 km/h (2 Bft) 95,74 %
13.12.2016 12:24 6,1 C 6,7 C 6,1 C 98 % 3 lf 1023,4 hPa 0,0 l/m 0 min 0 min 100 W/m 8,4 km/h (2 Bft) 89,36 %
13.12.2016 12:26 6,1 C 6,7 C 5,6 C 98 % 3 lf 1023,4 hPa 0,0 l/m 0 min 0 min 82 W/m 8,4 km/h (2 Bft) 89,36 %
13.12.2016 12:28 6,1 C 6,7 C 6,1 C 98 % 3 lf 1023,4 hPa 0,0 l/m 0 min 0 min 74 W/m 6,3 km/h (2 Bft) 97,87 %
13.12.2016 12:30 6,1 C 6,7 C 6,1 C 98 % 3 lf 1023,4 hPa 0,0 l/m 0 min 0 min 70 W/m 6,3 km/h (2 Bft) 97,83 %
13.12.2016 12:32 6,2 C 6,7 C 5,6 C 98 % 3 lf 1023,4 hPa 0,0 l/m 0 min 0 min 64 W/m 8,4 km/h (2 Bft) 95,74 %
13.12.2016 12:34 6,2 C 6,7 C 5,6 C 98 % 3 lf 1023,4 hPa 0,0 l/m 0 min 0 min 61 W/m 8,4 km/h (2 Bft) 93,62 %
13.12.2016 12:36 6,2 C 6,7 C 5,6 C 98 % 3 lf 1023,4 hPa 0,0 l/m 0 min 0 min 58 W/m 8,4 km/h (2 Bft) 93,62 %
13.12.2016 12:38 6,2 C 6,7 C 5,6 C 98 % 3 lf 1023,4 hPa 0,0 l/m 0 min 0 min 59 W/m 8,4 km/h (2 Bft) 95,74 %
13.12.2016 12:40 6,2 C 6,7 C 5,6 C 98 % 3 lf 1023,3 hPa 0,0 l/m 0 min 0 min 69 W/m 8,4 km/h (2 Bft) 95,74 %
13.12.2016 12:42 6,3 C 6,7 C 5,6 C 98 % 2 lf 1023,2 hPa 0,0 l/m 0 min 0 min 70 W/m 8,4 km/h (2 Bft) 86,96 %
13.12.2016 12:44 6,3 C 6,7 C 5,6 C 98 % 2 lf 1023,2 hPa 0,0 l/m 0 min 0 min 77 W/m 10,5 km/h (2 Bft) 93,62 %
13.12.2016 12:46 6,3 C 6,7 C 5,6 C 98 % 2 lf 1023,2 hPa 0,0 l/m 0 min 0 min 83 W/m 8,4 km/h (2 Bft) 93,62 %
13.12.2016 12:48 6,3 C 6,7 C 5,6 C 98 % 1 lf 1023,2 hPa 0,0 l/m 0 min 0 min 82 W/m 8,4 km/h (2 Bft) 93,62 %
13.12.2016 12:50 6,3 C 6,7 C 6,1 C 98 % 1 lf 1023,2 hPa 0,0 l/m 0 min 0 min 78 W/m 8,4 km/h (2 Bft) 95,74 %
13.12.2016 12:52 6,3 C 6,7 C 6,1 C 98 % 1 lf 1023,2 hPa 0,0 l/m 0 min 0 min 78 W/m 8,4 km/h (2 Bft) 95,74 %
13.12.2016 12:54 6,4 C 6,7 C 6,1 C 98 % 0 lf 1023,2 hPa 0,0 l/m 0 min 0 min 72 W/m 8,4 km/h (2 Bft) 97,83 %
13.12.2016 12:56 6,4 C 6,7 C 6,1 C 98 % 0 lf 1023,2 hPa 0,0 l/m 0 min 0 min 69 W/m 8,4 km/h (2 Bft) 95,74 %
13.12.2016 12:58 6,4 C 6,7 C 6,1 C 98 % 0 lf 1023,2 hPa 0,0 l/m 0 min 0 min 72 W/m 8,4 km/h (2 Bft) 93,62 %
13.12.2016 13:00 6,4 C 6,7 C 6,1 C 98 % 0 lf 1023,1 hPa 0,0 l/m 0 min 0 min 68 W/m 8,4 km/h (2 Bft) 87,23 %
13.12.2016 13:02 6,4 C 6,7 C 6,1 C 98 % 0 lf 1023,2 hPa 0,0 l/m 0 min 0 min 65 W/m 8,4 km/h (2 Bft) 93,62 %
13.12.2016 13:04 6,4 C 6,7 C 6,1 C 98 % 0 lf 1023,1 hPa 0,0 l/m 0 min 0 min 65 W/m 6,3 km/h (2 Bft) 95,74 %
13.12.2016 13:06 6,4 C 6,7 C 6,1 C 98 % 0 lf 1023,2 hPa 0,0 l/m 0 min 0 min 61 W/m 10,5 km/h (2 Bft) 97,83 %
13.12.2016 13:08 6,4 C 6,7 C 6,1 C 98 % 0 lf 1023,1 hPa 0,0 l/m 0 min 0 min 62 W/m 6,3 km/h (2 Bft) 93,62 %
13.12.2016 13:10 6,4 C 6,7 C 6,1 C 98 % 0 lf 1023,1 hPa 0,0 l/m 0 min 0 min 67 W/m 10,5 km/h (2 Bft) 97,87 %
13.12.2016 13:12 6,4 C 6,7 C 6,1 C 98 % 0 lf 1023,1 hPa 0,0 l/m 0 min 0 min 66 W/m 8,4 km/h (2 Bft) 100,00 %
13.12.2016 13:14 6,4 C 6,7 C 5,6 C 98 % 0 lf 1023,1 hPa 0,0 l/m 0 min 0 min 61 W/m 10,5 km/h (2 Bft) 97,87 %
13.12.2016 13:16 6,4 C 6,7 C 5,6 C 98 % 0 lf 1023,0 hPa 0,0 l/m 0 min 0 min 58 W/m 8,4 km/h (2 Bft) 97,83 %
13.12.2016 13:18 6,4 C 6,7 C 6,1 C 98 % 0 lf 1023,1 hPa 0,0 l/m 0 min 0 min 59 W/m 6,3 km/h (2 Bft) 100,00 %
13.12.2016 13:20 6,4 C 6,7 C 6,1 C 98 % 0 lf 1023,0 hPa 0,0 l/m 0 min 0 min 55 W/m 8,4 km/h (2 Bft) 97,87 %
13.12.2016 13:22 6,5 C 6,7 C 6,1 C 98 % 0 lf 1022,9 hPa 0,0 l/m 0 min 0 min 55 W/m 8,4 km/h (2 Bft) 97,87 %
13.12.2016 13:24 6,5 C 6,7 C 6,1 C 98 % 0 lf 1023,0 hPa 0,0 l/m 0 min 0 min 57 W/m 10,5 km/h (2 Bft) 95,74 %
13.12.2016 13:26 6,5 C 6,7 C 5,6 C 98 % 0 lf 1022,9 hPa 0,0 l/m 0 min 0 min 57 W/m 8,4 km/h (2 Bft) 97,87 %
13.12.2016 13:28 6,5 C 6,7 C 5,6 C 98 % 0 lf 1022,9 hPa 0,0 l/m 0 min 0 min 59 W/m 6,3 km/h (2 Bft) 100,00 %
13.12.2016 13:30 6,5 C 6,7 C 5,6 C 98 % 0 lf 1022,8 hPa 0,0 l/m 0 min 0 min 52 W/m 6,3 km/h (2 Bft) 100,00 %
13.12.2016 13:32 6,5 C 6,7 C 6,1 C 98 % 0 lf 1022,8 hPa 0,0 l/m 0 min 0 min 51 W/m 10,5 km/h (2 Bft) 97,87 %
13.12.2016 13:34 6,5 C 6,7 C 6,1 C 98 % 0 lf 1022,8 hPa 0,0 l/m 0 min 0 min 52 W/m 8,4 km/h (2 Bft) 95,74 %
13.12.2016 13:36 6,5 C 6,7 C 6,1 C 98 % 0 lf 1022,8 hPa 0,0 l/m 0 min 0 min 51 W/m 6,3 km/h (2 Bft) 97,87 %
13.12.2016 13:38 6,5 C 6,7 C 6,1 C 98 % 0 lf 1022,8 hPa 0,0 l/m 0 min 0 min 51 W/m 10,5 km/h (2 Bft) 100,00 %
13.12.2016 13:40 6,5 C 6,7 C 6,1 C 98 % 0 lf 1022,7 hPa 0,0 l/m 0 min 0 min 52 W/m 8,4 km/h (2 Bft) 97,83 %
13.12.2016 13:42 6,5 C 6,7 C 6,1 C 98 % 0 lf 1022,8 hPa 0,0 l/m 0 min 0 min 50 W/m 6,3 km/h (2 Bft) 100,00 %
13.12.2016 13:44 6,6 C 6,7 C 6,1 C 98 % 0 lf 1022,7 hPa 0,0 l/m 0 min 0 min 52 W/m 10,5 km/h (2 Bft) 97,87 %
13.12.2016 13:46 6,6 C 6,7 C 6,1 C 98 % 0 lf 1022,8 hPa 0,0 l/m 0 min 0 min 53 W/m 10,5 km/h (2 Bft) 95,74 %
13.12.2016 13:48 6,6 C 6,7 C 5,6 C 98 % 0 lf 1022,7 hPa 0,0 l/m 0 min 0 min 53 W/m 10,5 km/h (2 Bft) 100,00 %
13.12.2016 13:50 6,6 C 6,7 C 5,6 C 98 % 0 lf 1022,7 hPa 0,0 l/m 0 min 0 min 53 W/m 10,5 km/h (2 Bft) 97,87 %
13.12.2016 13:52 6,6 C 6,7 C 5,6 C 98 % 0 lf 1022,7 hPa 0,0 l/m 0 min 0 min 54 W/m 8,4 km/h (2 Bft) 95,65 %
13.12.2016 13:54 6,6 C 6,7 C 5,6 C 98 % 0 lf 1022,6 hPa 0,0 l/m 0 min 0 min 62 W/m 14,6 km/h (3 Bft) 100,00 %
13.12.2016 13:56 6,6 C 6,7 C 5,6 C 98 % 0 lf 1022,7 hPa 0,0 l/m 0 min 0 min 66 W/m 8,4 km/h (2 Bft) 100,00 %
13.12.2016 13:58 6,6 C 6,7 C 6,1 C 98 % 0 lf 1022,6 hPa 0,0 l/m 0 min 0 min 71 W/m 10,5 km/h (2 Bft) 100,00 %
13.12.2016 14:00 6,6 C 6,7 C 6,1 C 98 % 0 lf 1022,7 hPa 0,0 l/m 0 min 0 min 69 W/m 8,4 km/h (2 Bft) 100,00 %
13.12.2016 14:02 6,6 C 6,7 C 6,1 C 98 % 0 lf 1022,6 hPa 0,0 l/m 0 min 0 min 69 W/m 8,4 km/h (2 Bft) 95,74 %
13.12.2016 14:04 6,6 C 6,7 C 6,1 C 98 % 0 lf 1022,7 hPa 0,0 l/m 0 min 0 min 66 W/m 8,4 km/h (2 Bft) 100,00 %
13.12.2016 14:06 6,6 C 6,7 C 6,1 C 98 % 0 lf 1022,6 hPa 0,0 l/m 0 min 0 min 69 W/m 10,5 km/h (2 Bft) 97,87 %
13.12.2016 14:08 6,6 C 7,2 C 6,1 C 98 % 0 lf 1022,6 hPa 0,0 l/m 0 min 0 min 73 W/m 8,4 km/h (2 Bft) 97,87 %
13.12.2016 14:10 6,6 C 6,7 C 6,1 C 98 % 0 lf 1022,6 hPa 0,0 l/m 0 min 2 min 74 W/m 10,5 km/h (2 Bft) 100,00 %
13.12.2016 14:12 6,6 C 6,7 C 6,1 C 98 % 0 lf 1022,6 hPa 0,0 l/m 0 min 0 min 66 W/m 8,4 km/h (2 Bft) 97,87 %
13.12.2016 14:14 6,7 C 7,2 C 6,1 C 98 % 0 lf 1022,6 hPa 0,0 l/m 0 min 0 min 63 W/m 8,4 km/h (2 Bft) 93,62 %
13.12.2016 14:16 6,7 C 7,2 C 6,1 C 98 % 0 lf 1022,6 hPa 0,0 l/m 0 min 0 min 60 W/m 10,5 km/h (2 Bft) 100,00 %
13.12.2016 14:18 6,7 C 6,7 C 6,1 C 98 % 0 lf 1022,6 hPa 0,0 l/m 0 min 0 min 66 W/m 6,3 km/h (2 Bft) 95,74 %
13.12.2016 14:20 6,7 C 6,7 C 6,1 C 98 % 0 lf 1022,6 hPa 0,0 l/m 0 min 0 min 56 W/m 10,5 km/h (2 Bft) 97,87 %
13.12.2016 14:22 6,7 C 6,7 C 6,1 C 98 % 0 lf 1022,6 hPa 0,0 l/m 0 min 0 min 50 W/m 8,4 km/h (2 Bft) 93,62 %
13.12.2016 14:24 6,7 C 6,7 C 6,1 C 98 % 0 lf 1022,7 hPa 0,0 l/m 0 min 0 min 47 W/m 8,4 km/h (2 Bft) 93,62 %
13.12.2016 14:26 6,7 C 7,2 C 6,1 C 98 % 0 lf 1022,7 hPa 0,0 l/m 0 min 0 min 47 W/m 8,4 km/h (2 Bft) 95,65 %
13.12.2016 14:28 6,7 C 7,2 C 6,1 C 98 % 0 lf 1022,6 hPa 0,0 l/m 0 min 0 min 48 W/m 8,4 km/h (2 Bft) 97,87 %
13.12.2016 14:30 6,7 C 6,7 C 6,1 C 98 % 0 lf 1022,6 hPa 0,0 l/m 0 min 0 min 47 W/m 8,4 km/h (2 Bft) 93,62 %
13.12.2016 14:32 6,7 C 6,7 C 6,1 C 98 % 0 lf 1022,6 hPa 0,0 l/m 0 min 0 min 49 W/m 8,4 km/h (2 Bft) 93,62 %
13.12.2016 14:34 6,7 C 7,2 C 6,1 C 98 % 0 lf 1022,6 hPa 0,0 l/m 0 min 0 min 47 W/m 8,4 km/h (2 Bft) 95,74 %
13.12.2016 14:36 6,7 C 7,2 C 6,1 C 98 % 0 lf 1022,7 hPa 0,0 l/m 0 min 0 min 44 W/m 6,3 km/h (2 Bft) 95,74 %
13.12.2016 14:38 6,7 C 7,2 C 6,1 C 98 % 0 lf 1022,6 hPa 0,0 l/m 0 min 0 min 45 W/m 4,2 km/h (1 Bft) 93,48 %
13.12.2016 14:40 6,7 C 7,2 C 6,1 C 98 % 0 lf 1022,6 hPa 0,0 l/m 0 min 0 min 41 W/m 6,3 km/h (2 Bft) 95,74 %
13.12.2016 14:42 6,7 C 7,2 C 6,1 C 98 % 0 lf 1022,6 hPa 0,0 l/m 0 min 0 min 37 W/m 6,3 km/h (2 Bft) 93,62 %
13.12.2016 14:44 6,7 C 7,2 C 6,1 C 98 % 0 lf 1022,6 hPa 0,0 l/m 0 min 0 min 37 W/m 4,2 km/h (1 Bft) 93,62 %
13.12.2016 14:46 6,8 C 7,2 C 6,1 C 98 % 0 lf 1022,6 hPa 0,0 l/m 0 min 0 min 39 W/m 6,3 km/h (2 Bft) 95,74 %
13.12.2016 14:48 6,8 C 7,2 C 6,1 C 98 % 0 lf 1022,5 hPa 0,0 l/m 0 min 0 min 35 W/m 6,3 km/h (2 Bft) 95,74 %
13.12.2016 14:50 6,8 C 6,7 C 6,1 C 98 % 0 lf 1022,5 hPa 0,0 l/m 0 min 0 min 36 W/m 8,4 km/h (2 Bft) 97,83 %
13.12.2016 14:52 6,8 C 7,2 C 6,1 C 98 % 0 lf 1022,6 hPa 0,0 l/m 0 min 0 min 36 W/m 6,3 km/h (2 Bft) 95,74 %
13.12.2016 14:54 6,8 C 7,2 C 6,1 C 98 % 0 lf 1022,5 hPa 0,0 l/m 0 min 0 min 35 W/m 8,4 km/h (2 Bft) 95,74 %
13.12.2016 14:56 6,8 C 7,2 C 6,1 C 98 % 0 lf 1022,5 hPa 0,0 l/m 0 min 0 min 35 W/m 4,2 km/h (1 Bft) 93,62 %
13.12.2016 14:58 6,8 C 6,7 C 6,1 C 98 % 0 lf 1022,5 hPa 0,0 l/m 0 min 0 min 35 W/m 8,4 km/h (2 Bft) 95,74 %
13.12.2016 15:00 6,8 C 7,2 C 6,1 C 98 % 0 lf 1022,4 hPa 0,0 l/m 0 min 0 min 34 W/m 8,4 km/h (2 Bft) 95,74 %
13.12.2016 15:02 6,8 C 7,2 C 6,1 C 98 % 0 lf 1022,5 hPa 0,0 l/m 0 min 0 min 32 W/m 8,4 km/h (2 Bft) 93,48 %
13.12.2016 15:04 6,8 C 7,2 C 6,1 C 98 % 0 lf 1022,4 hPa 0,0 l/m 0 min 0 min 29 W/m 4,2 km/h (1 Bft) 97,87 %
13.12.2016 15:06 6,8 C 6,7 C 6,1 C 98 % 0 lf 1022,5 hPa 0,0 l/m 0 min 0 min 27 W/m 8,4 km/h (2 Bft) 97,87 %
13.12.2016 15:08 6,8 C 6,7 C 6,1 C 98 % 0 lf 1022,5 hPa 0,0 l/m 0 min 0 min 25 W/m 6,3 km/h (2 Bft) 93,62 %
13.12.2016 15:10 6,8 C 6,7 C 5,6 C 98 % 0 lf 1022,5 hPa 0,0 l/m 0 min 0 min 25 W/m 8,4 km/h (2 Bft) 97,87 %
13.12.2016 15:12 6,8 C 6,7 C 5,6 C 98 % 0 lf 1022,6 hPa 0,0 l/m 0 min 0 min 23 W/m 6,3 km/h (2 Bft) 97,87 %
13.12.2016 15:14 6,8 C 6,7 C 5,6 C 98 % 0 lf 1022,5 hPa 0,0 l/m 0 min 0 min 24 W/m 8,4 km/h (2 Bft) 93,48 %
13.12.2016 15:16 6,8 C 6,7 C 5,6 C 98 % 0 lf 1022,4 hPa 0,0 l/m 0 min 0 min 24 W/m 10,5 km/h (2 Bft) 95,74 %
13.12.2016 15:18 6,8 C 6,7 C 5,6 C 98 % 0 lf 1022,4 hPa 0,0 l/m 0 min 0 min 23 W/m 8,4 km/h (2 Bft) 91,49 %
13.12.2016 15:20 6,7 C 6,7 C 5,6 C 98 % 1 lf 1022,4 hPa 0,0 l/m 0 min 0 min 21 W/m 6,3 km/h (2 Bft) 97,87 %
13.12.2016 15:22 6,7 C 6,7 C 5,6 C 98 % 1 lf 1022,4 hPa 0,0 l/m 0 min 0 min 21 W/m 6,3 km/h (2 Bft) 95,74 %
13.12.2016 15:24 6,7 C 6,7 C 5,6 C 98 % 1 lf 1022,4 hPa 0,0 l/m 0 min 0 min 21 W/m 8,4 km/h (2 Bft) 91,49 %
13.12.2016 15:26 6,7 C 6,7 C 5,6 C 98 % 1 lf 1022,4 hPa 0,0 l/m 0 min 0 min 22 W/m 8,4 km/h (2 Bft) 91,30 %
13.12.2016 15:28 6,7 C 6,7 C 5,6 C 98 % 1 lf 1022,3 hPa 0,0 l/m 0 min 0 min 22 W/m 8,4 km/h (2 Bft) 95,74 %
13.12.2016 15:30 6,7 C 6,7 C 5,6 C 98 % 1 lf 1022,4 hPa 0,0 l/m 0 min 0 min 23 W/m 6,3 km/h (2 Bft) 93,62 %
13.12.2016 15:32 6,7 C 6,7 C 5,6 C 98 % 1 lf 1022,4 hPa 0,0 l/m 0 min 0 min 21 W/m 8,4 km/h (2 Bft) 93,62 %
13.12.2016 15:34 6,7 C 6,7 C 5,6 C 98 % 1 lf 1022,4 hPa 0,0 l/m 0 min 0 min 19 W/m 6,3 km/h (2 Bft) 95,74 %
13.12.2016 15:36 6,7 C 6,7 C 5,6 C 98 % 1 lf 1022,4 hPa 0,0 l/m 0 min 0 min 20 W/m 6,3 km/h (2 Bft) 93,48 %
13.12.2016 15:38 6,7 C 6,7 C 5,6 C 98 % 1 lf 1022,4 hPa 0,0 l/m 0 min 0 min 21 W/m 4,2 km/h (1 Bft) 95,74 %
13.12.2016 15:40 6,7 C 6,7 C 5,6 C 98 % 1 lf 1022,4 hPa 0,0 l/m 0 min 0 min 19 W/m 6,3 km/h (2 Bft) 93,62 %
13.12.2016 15:42 6,7 C 6,7 C 5,6 C 98 % 1 lf 1022,4 hPa 0,0 l/m 0 min 0 min 16 W/m 6,3 km/h (2 Bft) 93,62 %
13.12.2016 15:44 6,7 C 6,7 C 5,6 C 98 % 1 lf 1022,4 hPa 0,0 l/m 0 min 0 min 15 W/m 8,4 km/h (2 Bft) 91,49 %
13.12.2016 15:46 6,7 C 6,7 C 5,6 C 98 % 1 lf 1022,5 hPa 0,0 l/m 0 min 0 min 14 W/m 4,2 km/h (1 Bft) 95,74 %
13.12.2016 15:48 6,7 C 6,7 C 5,6 C 98 % 1 lf 1022,4 hPa 0,0 l/m 0 min 0 min 16 W/m 6,3 km/h (2 Bft) 93,62 %
13.12.2016 15:50 6,7 C 6,7 C 5,6 C 98 % 1 lf 1022,4 hPa 0,0 l/m 0 min 0 min 14 W/m 6,3 km/h (2 Bft) 95,65 %
13.12.2016 15:52 6,7 C 6,7 C 5,6 C 98 % 1 lf 1022,5 hPa 0,0 l/m 0 min 0 min 12 W/m 6,3 km/h (2 Bft) 87,23 %
13.12.2016 15:54 6,7 C 6,7 C 5,6 C 98 % 1 lf 1022,5 hPa 0,0 l/m 0 min 0 min 11 W/m 8,4 km/h (2 Bft) 95,74 %
13.12.2016 15:56 6,7 C 6,7 C 5,6 C 98 % 1 lf 1022,4 hPa 0,0 l/m 0 min 0 min 10 W/m 8,4 km/h (2 Bft) 95,74 %
13.12.2016 15:58 6,7 C 6,7 C 5,6 C 98 % 1 lf 1022,4 hPa 0,0 l/m 0 min 0 min 9 W/m 8,4 km/h (2 Bft) 89,36 %
13.12.2016 16:00 6,7 C 6,7 C 5,6 C 98 % 1 lf 1022,4 hPa 0,0 l/m 0 min 0 min 11 W/m 6,3 km/h (2 Bft) 91,30 %
13.12.2016 16:02 6,7 C 6,7 C 5,6 C 98 % 1 lf 1022,4 hPa 0,0 l/m 0 min 0 min 11 W/m 6,3 km/h (2 Bft) 95,74 %
13.12.2016 16:04 6,7 C 6,7 C 5,6 C 98 % 1 lf 1022,4 hPa 0,0 l/m 0 min 0 min 9 W/m 8,4 km/h (2 Bft) 91,49 %
13.12.2016 16:06 6,7 C 6,7 C 5,6 C 98 % 1 lf 1022,5 hPa 0,0 l/m 0 min 0 min 10 W/m 6,3 km/h (2 Bft) 93,62 %
13.12.2016 16:08 6,7 C 6,7 C 5,6 C 98 % 1 lf 1022,5 hPa 0,0 l/m 0 min 0 min 11 W/m 10,5 km/h (2 Bft) 95,74 %
13.12.2016 16:10 6,7 C 6,7 C 5,6 C 98 % 1 lf 1022,4 hPa 0,0 l/m 0 min 0 min 12 W/m 8,4 km/h (2 Bft) 95,74 %
13.12.2016 16:12 6,7 C 6,7 C 5,6 C 98 % 1 lf 1022,4 hPa 0,0 l/m 0 min 0 min 10 W/m 8,4 km/h (2 Bft) 95,65 %
13.12.2016 16:14 6,7 C 6,7 C 5,6 C 98 % 1 lf 1022,4 hPa 0,0 l/m 0 min 0 min 9 W/m 8,4 km/h (2 Bft) 97,87 %
13.12.2016 16:16 6,6 C 6,7 C 5,6 C 98 % 1 lf 1022,4 hPa 0,0 l/m 0 min 0 min 7 W/m 8,4 km/h (2 Bft) 100,00 %
13.12.2016 16:18 6,6 C 6,7 C 5,6 C 98 % 1 lf 1022,4 hPa 0,0 l/m 0 min 0 min 7 W/m 6,3 km/h (2 Bft) 95,74 %
13.12.2016 16:20 6,6 C 6,7 C 5,6 C 98 % 1 lf 1022,4 hPa 0,0 l/m 0 min 0 min 7 W/m 6,3 km/h (2 Bft) 95,74 %
13.12.2016 16:22 6,6 C 6,7 C 5,6 C 98 % 1 lf 1022,4 hPa 0,0 l/m 0 min 0 min 7 W/m 8,4 km/h (2 Bft) 93,62 %
13.12.2016 16:24 6,6 C 6,7 C 5,0 C 98 % 1 lf 1022,3 hPa 0,0 l/m 0 min 0 min 7 W/m 8,4 km/h (2 Bft) 97,83 %
13.12.2016 16:26 6,6 C 6,7 C 5,0 C 98 % 1 lf 1022,3 hPa 0,0 l/m 0 min 0 min 7 W/m 6,3 km/h (2 Bft) 95,74 %
13.12.2016 16:28 6,6 C 6,7 C 5,0 C 98 % 1 lf 1022,3 hPa 0,0 l/m 0 min 0 min 7 W/m 10,5 km/h (2 Bft) 93,62 %
13.12.2016 16:30 6,6 C 6,7 C 5,0 C 98 % 1 lf 1022,4 hPa 0,0 l/m 0 min 0 min 5 W/m 8,4 km/h (2 Bft) 95,74 %
13.12.2016 16:32 6,6 C 6,7 C 5,0 C 98 % 1 lf 1022,4 hPa 0,0 l/m 0 min 0 min 5 W/m 10,5 km/h (2 Bft) 97,87 %
13.12.2016 16:34 6,6 C 6,7 C 5,0 C 98 % 1 lf 1022,4 hPa 0,0 l/m 0 min 0 min 5 W/m 8,4 km/h (2 Bft) 97,87 %
13.12.2016 16:36 6,5 C 6,7 C 5,0 C 98 % 1 lf 1022,4 hPa 0,0 l/m 0 min 0 min 5 W/m 10,5 km/h (2 Bft) 95,65 %
13.12.2016 16:38 6,5 C 6,7 C 5,0 C 98 % 1 lf 1022,4 hPa 0,0 l/m 0 min 0 min 5 W/m 8,4 km/h (2 Bft) 91,49 %
13.12.2016 16:40 6,4 C 6,7 C 5,0 C 98 % 1 lf 1022,3 hPa 0,0 l/m 0 min 0 min 5 W/m 10,5 km/h (2 Bft) 95,74 %
13.12.2016 16:42 6,4 C 6,7 C 5,0 C 98 % 1 lf 1022,3 hPa 0,0 l/m 0 min 0 min 5 W/m 8,4 km/h (2 Bft) 97,87 %
13.12.2016 16:44 6,4 C 6,1 C 5,0 C 98 % 1 lf 1022,4 hPa 0,0 l/m 0 min 0 min 5 W/m 8,4 km/h (2 Bft) 97,87 %
13.12.2016 16:46 6,4 C 6,7 C 5,0 C 98 % 1 lf 1022,4 hPa 0,0 l/m 0 min 0 min 0 W/m 8,4 km/h (2 Bft) 97,87 %
13.12.2016 16:48 6,4 C 6,7 C 5,0 C 98 % 1 lf 1022,4 hPa 0,0 l/m 0 min 0 min 0 W/m 6,3 km/h (2 Bft) 97,83 %
13.12.2016 16:50 6,4 C 6,7 C 5,0 C 98 % 1 lf 1022,4 hPa 0,0 l/m 0 min 0 min 0 W/m 8,4 km/h (2 Bft) 97,87 %
13.12.2016 16:52 6,4 C 6,7 C 5,0 C 98 % 1 lf 1022,4 hPa 0,0 l/m 0 min 0 min 0 W/m 10,5 km/h (2 Bft) 100,00 %
13.12.2016 16:54 6,4 C 6,7 C 5,0 C 98 % 1 lf 1022,4 hPa 0,0 l/m 0 min 0 min 0 W/m 8,4 km/h (2 Bft) 100,00 %
13.12.2016 16:56 6,4 C 6,7 C 5,0 C 98 % 1 lf 1022,5 hPa 0,0 l/m 0 min 0 min 0 W/m 12,6 km/h (3 Bft) 100,00 %
13.12.2016 16:58 6,4 C 6,7 C 5,0 C 98 % 1 lf 1022,5 hPa 0,0 l/m 0 min 0 min 0 W/m 8,4 km/h (2 Bft) 97,83 %
13.12.2016 17:00 6,4 C 6,7 C 5,0 C 98 % 1 lf 1022,4 hPa 0,0 l/m 0 min 0 min 0 W/m 10,5 km/h (2 Bft) 93,62 %
13.12.2016 17:02 6,4 C 6,7 C 5,0 C 98 % 1 lf 1022,4 hPa 0,0 l/m 0 min 0 min 0 W/m 8,4 km/h (2 Bft) 97,87 %
13.12.2016 17:04 6,4 C 6,7 C 5,0 C 98 % 1 lf 1022,5 hPa 0,0 l/m 0 min 0 min 0 W/m 10,5 km/h (2 Bft) 97,87 %
13.12.2016 17:06 6,4 C 6,7 C 5,0 C 98 % 1 lf 1022,5 hPa 0,0 l/m 0 min 0 min 0 W/m 10,5 km/h (2 Bft) 93,62 %
13.12.2016 17:08 6,4 C 6,7 C 5,0 C 98 % 1 lf 1022,5 hPa 0,0 l/m 0 min 0 min 0 W/m 8,4 km/h (2 Bft) 97,87 %
13.12.2016 17:10 6,4 C 6,7 C 5,0 C 98 % 1 lf 1022,5 hPa 0,0 l/m 0 min 0 min 0 W/m 8,4 km/h (2 Bft) 95,65 %
13.12.2016 17:12 6,4 C 6,7 C 5,0 C 98 % 1 lf 1022,6 hPa 0,0 l/m 0 min 0 min 0 W/m 8,4 km/h (2 Bft) 95,74 %
13.12.2016 17:14 6,4 C 6,7 C 5,0 C 98 % 1 lf 1022,6 hPa 0,0 l/m 0 min 0 min 0 W/m 8,4 km/h (2 Bft) 93,62 %
13.12.2016 17:16 6,4 C 6,1 C 5,0 C 98 % 1 lf 1022,6 hPa 0,0 l/m 0 min 0 min 0 W/m 10,5 km/h (2 Bft) 97,87 %
13.12.2016 17:18 6,4 C 6,7 C 5,0 C 98 % 1 lf 1022,6 hPa 0,0 l/m 0 min 0 min 0 W/m 10,5 km/h (2 Bft) 93,62 %
13.12.2016 17:20 6,4 C 6,7 C 5,0 C 98 % 1 lf 1022,6 hPa 0,0 l/m 0 min 0 min 0 W/m 10,5 km/h (2 Bft) 93,62 %
13.12.2016 17:22 6,4 C 6,7 C 5,0 C 98 % 1 lf 1022,5 hPa 0,0 l/m 0 min 0 min 0 W/m 10,5 km/h (2 Bft) 95,65 %
13.12.2016 17:24 6,3 C 6,7 C 5,0 C 98 % 1 lf 1022,6 hPa 0,0 l/m 0 min 0 min 0 W/m 6,3 km/h (2 Bft) 97,87 %
13.12.2016 17:26 6,4 C 6,7 C 5,0 C 98 % 1 lf 1022,6 hPa 0,0 l/m 0 min 0 min 0 W/m 8,4 km/h (2 Bft) 95,74 %
13.12.2016 17:28 6,3 C 6,7 C 5,0 C 98 % 1 lf 1022,6 hPa 0,0 l/m 0 min 0 min 0 W/m 8,4 km/h (2 Bft) 97,87 %
13.12.2016 17:30 6,3 C 6,7 C 5,0 C 98 % 1 lf 1022,6 hPa 0,0 l/m 0 min 0 min 0 W/m 6,3 km/h (2 Bft) 95,74 %
13.12.2016 17:32 6,4 C 6,7 C 5,0 C 98 % 1 lf 1022,6 hPa 0,0 l/m 0 min 0 min 0 W/m 8,4 km/h (2 Bft) 97,87 %
13.12.2016 17:34 6,4 C 6,7 C 5,0 C 98 % 1 lf 1022,7 hPa 0,0 l/m 0 min 0 min 0 W/m 6,3 km/h (2 Bft) 93,48 %
13.12.2016 17:36 6,3 C 6,7 C 5,0 C 98 % 1 lf 1022,7 hPa 0,0 l/m 0 min 0 min 0 W/m 8,4 km/h (2 Bft) 97,87 %
13.12.2016 17:38 6,3 C 6,7 C 5,0 C 98 % 1 lf 1022,7 hPa 0,0 l/m 0 min 0 min 0 W/m 4,2 km/h (1 Bft) 97,87 %
13.12.2016 17:40 6,4 C 6,7 C 5,0 C 98 % 1 lf 1022,8 hPa 0,0 l/m 0 min 0 min 0 W/m 8,4 km/h (2 Bft) 95,74 %
13.12.2016 17:42 6,4 C 6,7 C 5,0 C 98 % 1 lf 1022,7 hPa 0,0 l/m 0 min 0 min 0 W/m 4,2 km/h (1 Bft) 100,00 %
13.12.2016 17:44 6,4 C 6,7 C 5,0 C 98 % 1 lf 1022,8 hPa 0,0 l/m 0 min 0 min 0 W/m 6,3 km/h (2 Bft) 100,00 %
13.12.2016 17:46 6,4 C 6,7 C 5,0 C 98 % 1 lf 1022,7 hPa 0,0 l/m 0 min 0 min 0 W/m 6,3 km/h (2 Bft) 97,83 %
13.12.2016 17:48 6,4 C 6,7 C 5,0 C 98 % 1 lf 1022,6 hPa 0,0 l/m 0 min 0 min 0 W/m 4,2 km/h (1 Bft) 95,74 %
13.12.2016 17:50 6,4 C 6,7 C 5,0 C 98 % 1 lf 1022,6 hPa 0,0 l/m 0 min 0 min 0 W/m 4,2 km/h (1 Bft) 100,00 %
13.12.2016 17:52 6,4 C 6,7 C 5,0 C 98 % 1 lf 1022,6 hPa 0,0 l/m 0 min 0 min 0 W/m 6,3 km/h (2 Bft) 97,87 %
13.12.2016 17:54 6,4 C 6,7 C 5,0 C 98 % 1 lf 1022,6 hPa 0,0 l/m 0 min 0 min 0 W/m 6,3 km/h (2 Bft) 100,00 %
13.12.2016 17:56 6,4 C 6,7 C 5,0 C 98 % 1 lf 1022,6 hPa 0,0 l/m 0 min 0 min 0 W/m 6,3 km/h (2 Bft) 100,00 %
13.12.2016 17:58 6,4 C 6,7 C 5,0 C 98 % 1 lf 1022,7 hPa 0,0 l/m 0 min 0 min 0 W/m 6,3 km/h (2 Bft) 97,83 %
13.12.2016 18:00 6,4 C 6,7 C 5,0 C 98 % 1 lf 1022,7 hPa 0,0 l/m 0 min 0 min 0 W/m 6,3 km/h (2 Bft) 100,00 %
13.12.2016 18:02 6,4 C 6,7 C 5,0 C 98 % 1 lf 1022,7 hPa 0,0 l/m 0 min 0 min 0 W/m 6,3 km/h (2 Bft) 97,87 %
13.12.2016 18:06 6,4 C 6,7 C 5,0 C 99 % 1 lf 1022,7 hPa 0,0 l/m 0 min 0 min 0 W/m 6,3 km/h (2 Bft) 97,00 %
13.12.2016 18:08 6,4 C 6,7 C 5,0 C 99 % 1 lf 1022,7 hPa 0,0 l/m 0 min 0 min 0 W/m 6,3 km/h (2 Bft) 97,87 %
13.12.2016 18:10 6,4 C 6,7 C 5,0 C 99 % 1 lf 1022,7 hPa 0,0 l/m 0 min 0 min 0 W/m 6,3 km/h (2 Bft) 95,65 %
13.12.2016 18:12 6,4 C 6,7 C 5,0 C 99 % 1 lf 1022,7 hPa 0,0 l/m 0 min 0 min 0 W/m 4,2 km/h (1 Bft) 97,87 %
13.12.2016 18:14 6,4 C 6,7 C 5,0 C 99 % 1 lf 1022,7 hPa 0,0 l/m 0 min 0 min 0 W/m 8,4 km/h (2 Bft) 93,62 %
13.12.2016 18:16 6,4 C 6,7 C 5,0 C 99 % 1 lf 1022,7 hPa 0,0 l/m 0 min 0 min 0 W/m 6,3 km/h (2 Bft) 95,74 %
13.12.2016 18:18 6,4 C 6,7 C 5,0 C 99 % 1 lf 1022,7 hPa 0,0 l/m 0 min 0 min 0 W/m 6,3 km/h (2 Bft) 91,49 %
13.12.2016 18:20 6,4 C 6,7 C 5,0 C 98 % 1 lf 1022,7 hPa 0,0 l/m 0 min 0 min 0 W/m 8,4 km/h (2 Bft) 95,74 %
13.12.2016 18:22 6,4 C 6,7 C 5,0 C 99 % 1 lf 1022,7 hPa 0,0 l/m 0 min 0 min 0 W/m 4,2 km/h (1 Bft) 95,65 %
13.12.2016 18:24 6,4 C 6,7 C 5,0 C 98 % 1 lf 1022,7 hPa 0,0 l/m 0 min 0 min 0 W/m 6,3 km/h (2 Bft) 93,62 %
13.12.2016 18:26 6,4 C 6,7 C 5,0 C 98 % 1 lf 1022,7 hPa 0,0 l/m 0 min 0 min 0 W/m 6,3 km/h (2 Bft) 93,62 %
13.12.2016 18:28 6,4 C 6,7 C 5,0 C 98 % 1 lf 1022,7 hPa 0,0 l/m 0 min 0 min 0 W/m 6,3 km/h (2 Bft) 95,74 %
13.12.2016 18:30 6,4 C 6,7 C 5,0 C 98 % 1 lf 1022,7 hPa 0,0 l/m 0 min 0 min 0 W/m 4,2 km/h (1 Bft) 95,74 %
13.12.2016 18:32 6,4 C 6,7 C 5,0 C 99 % 1 lf 1022,7 hPa 0,0 l/m 0 min 0 min 0 W/m 4,2 km/h (1 Bft) 95,65 %
13.12.2016 18:34 6,4 C 6,7 C 5,0 C 98 % 1 lf 1022,6 hPa 0,0 l/m 0 min 0 min 0 W/m 6,3 km/h (2 Bft) 95,74 %
13.12.2016 18:36 6,4 C 6,7 C 5,0 C 99 % 1 lf 1022,7 hPa 0,0 l/m 0 min 0 min 0 W/m 6,3 km/h (2 Bft) 97,87 %
13.12.2016 18:38 6,4 C 6,7 C 5,0 C 98 % 1 lf 1022,7 hPa 0,0 l/m 0 min 0 min 0 W/m 4,2 km/h (1 Bft) 93,62 %
13.12.2016 18:40 6,4 C 6,7 C 5,0 C 98 % 1 lf 1022,6 hPa 0,0 l/m 0 min 0 min 0 W/m 6,3 km/h (2 Bft) 97,87 %
13.12.2016 18:42 6,4 C 6,7 C 5,0 C 98 % 1 lf 1022,6 hPa 0,0 l/m 0 min 0 min 0 W/m 6,3 km/h (2 Bft) 95,74 %
13.12.2016 18:44 6,4 C 6,7 C 5,0 C 99 % 1 lf 1022,6 hPa 0,0 l/m 0 min 0 min 0 W/m 6,3 km/h (2 Bft) 93,48 %
13.12.2016 18:46 6,4 C 6,7 C 5,0 C 99 % 1 lf 1022,6 hPa 0,0 l/m 0 min 0 min 0 W/m 6,3 km/h (2 Bft) 95,74 %
13.12.2016 18:48 6,4 C 6,7 C 5,0 C 99 % 1 lf 1022,6 hPa 0,0 l/m 0 min 0 min 0 W/m 6,3 km/h (2 Bft) 93,62 %
13.12.2016 18:50 6,4 C 6,7 C 5,0 C 99 % 1 lf 1022,6 hPa 0,0 l/m 0 min 0 min 0 W/m 6,3 km/h (2 Bft) 97,87 %
13.12.2016 18:52 6,4 C 6,7 C 5,0 C 99 % 1 lf 1022,5 hPa 0,0 l/m 0 min 0 min 0 W/m 8,4 km/h (2 Bft) 95,74 %
13.12.2016 18:54 6,4 C 6,7 C 5,0 C 99 % 1 lf 1022,6 hPa 0,0 l/m 0 min 0 min 0 W/m 8,4 km/h (2 Bft) 95,74 %
13.12.2016 18:56 6,4 C 6,7 C 5,0 C 99 % 1 lf 1022,5 hPa 0,0 l/m 0 min 0 min 0 W/m 6,3 km/h (2 Bft) 97,83 %
13.12.2016 18:58 6,4 C 6,7 C 5,0 C 99 % 1 lf 1022,4 hPa 0,0 l/m 0 min 0 min 0 W/m 6,3 km/h (2 Bft) 95,74 %
13.12.2016 19:00 6,4 C 6,7 C 5,0 C 99 % 1 lf 1022,4 hPa 0,0 l/m 0 min 0 min 0 W/m 6,3 km/h (2 Bft) 97,87 %
13.12.2016 19:02 6,4 C 6,7 C 5,0 C 99 % 1 lf 1022,5 hPa 0,0 l/m 0 min 0 min 0 W/m 6,3 km/h (2 Bft) 95,74 %
13.12.2016 19:04 6,4 C 6,7 C 5,0 C 99 % 1 lf 1022,5 hPa 0,0 l/m 0 min 0 min 0 W/m 6,3 km/h (2 Bft) 95,74 %
13.12.2016 19:06 6,4 C 6,7 C 5,0 C 99 % 1 lf 1022,5 hPa 0,0 l/m 0 min 0 min 0 W/m 6,3 km/h (2 Bft) 97,87 %
13.12.2016 19:08 6,4 C 6,7 C 5,0 C 99 % 1 lf 1022,5 hPa 0,0 l/m 0 min 0 min 0 W/m 6,3 km/h (2 Bft) 97,83 %
13.12.2016 19:10 6,4 C 6,7 C 5,0 C 99 % 1 lf 1022,5 hPa 0,0 l/m 0 min 0 min 0 W/m 6,3 km/h (2 Bft) 97,87 %
13.12.2016 19:12 6,4 C 6,7 C 5,0 C 99 % 1 lf 1022,5 hPa 0,0 l/m 0 min 0 min 0 W/m 6,3 km/h (2 Bft) 89,36 %
13.12.2016 19:14 6,4 C 6,7 C 5,0 C 99 % 1 lf 1022,4 hPa 0,0 l/m 0 min 0 min 0 W/m 8,4 km/h (2 Bft) 95,74 %
13.12.2016 19:16 6,4 C 6,7 C 5,0 C 99 % 1 lf 1022,5 hPa 0,0 l/m 0 min 0 min 0 W/m 4,2 km/h (1 Bft) 97,87 %
13.12.2016 19:18 6,4 C 6,7 C 5,0 C 99 % 1 lf 1022,4 hPa 0,0 l/m 0 min 0 min 0 W/m 6,3 km/h (2 Bft) 95,74 %
13.12.2016 19:20 6,4 C 6,7 C 5,0 C 99 % 1 lf 1022,5 hPa 0,0 l/m 0 min 0 min 0 W/m 6,3 km/h (2 Bft) 95,65 %
13.12.2016 19:22 6,3 C 6,7 C 5,0 C 99 % 1 lf 1022,5 hPa 0,0 l/m 0 min 0 min 0 W/m 8,4 km/h (2 Bft) 95,74 %
13.12.2016 19:24 6,4 C 6,7 C 5,0 C 99 % 1 lf 1022,4 hPa 0,0 l/m 0 min 0 min 0 W/m 6,3 km/h (2 Bft) 95,74 %
13.12.2016 19:26 6,3 C 6,7 C 5,0 C 99 % 1 lf 1022,5 hPa 0,0 l/m 0 min 0 min 0 W/m 6,3 km/h (2 Bft) 95,74 %
13.12.2016 19:28 6,4 C 6,7 C 5,0 C 99 % 1 lf 1022,5 hPa 0,0 l/m 0 min 0 min 0 W/m 6,3 km/h (2 Bft) 93,62 %
13.12.2016 19:30 6,4 C 6,7 C 5,0 C 99 % 1 lf 1022,5 hPa 0,0 l/m 0 min 0 min 0 W/m 8,4 km/h (2 Bft) 95,74 %
13.12.2016 19:32 6,4 C 6,7 C 5,0 C 99 % 1 lf 1022,5 hPa 0,0 l/m 0 min 0 min 0 W/m 8,4 km/h (2 Bft) 95,65 %
13.12.2016 19:34 6,3 C 6,7 C 5,0 C 99 % 1 lf 1022,5 hPa 0,0 l/m 0 min 0 min 0 W/m 6,3 km/h (2 Bft) 95,74 %
13.12.2016 19:36 6,4 C 6,1 C 5,0 C 99 % 1 lf 1022,5 hPa 0,0 l/m 0 min 0 min 0 W/m 8,4 km/h (2 Bft) 95,74 %
13.12.2016 19:38 6,3 C 6,1 C 5,0 C 99 % 1 lf 1022,5 hPa 0,0 l/m 0 min 0 min 0 W/m 8,4 km/h (2 Bft) 95,74 %
13.12.2016 19:40 6,3 C 6,7 C 5,0 C 99 % 1 lf 1022,5 hPa 0,0 l/m 0 min 0 min 0 W/m 6,3 km/h (2 Bft) 95,74 %
13.12.2016 19:42 6,3 C 6,1 C 5,0 C 99 % 1 lf 1022,4 hPa 0,0 l/m 0 min 0 min 0 W/m 8,4 km/h (2 Bft) 93,48 %
13.12.2016 19:44 6,3 C 6,1 C 5,0 C 99 % 1 lf 1022,5 hPa 0,0 l/m 0 min 0 min 0 W/m 8,4 km/h (2 Bft) 93,62 %
13.12.2016 19:46 6,3 C 6,1 C 5,0 C 99 % 1 lf 1022,4 hPa 0,0 l/m 0 min 0 min 0 W/m 8,4 km/h (2 Bft) 85,11 %
13.12.2016 19:48 6,3 C 6,1 C 5,0 C 99 % 2 lf 1022,4 hPa 0,0 l/m 0 min 0 min 0 W/m 6,3 km/h (2 Bft) 93,62 %
13.12.2016 19:50 6,4 C 6,1 C 5,0 C 99 % 2 lf 1022,5 hPa 0,0 l/m 0 min 0 min 0 W/m 4,2 km/h (1 Bft) 95,74 %
13.12.2016 19:52 6,3 C 6,1 C 5,0 C 99 % 3 lf 1022,4 hPa 0,0 l/m 0 min 0 min 0 W/m 4,2 km/h (1 Bft) 95,74 %
13.12.2016 19:54 6,4 C 6,1 C 5,0 C 99 % 3 lf 1022,4 hPa 0,0 l/m 0 min 0 min 0 W/m 6,3 km/h (2 Bft) 91,30 %
13.12.2016 19:56 6,3 C 6,1 C 5,0 C 99 % 3 lf 1022,4 hPa 0,0 l/m 0 min 0 min 0 W/m 8,4 km/h (2 Bft) 89,36 %
13.12.2016 19:58 6,4 C 6,1 C 5,0 C 99 % 3 lf 1022,4 hPa 0,0 l/m 0 min 0 min 0 W/m 10,5 km/h (2 Bft) 91,49 %
13.12.2016 20:00 6,4 C 6,1 C 5,0 C 99 % 3 lf 1022,3 hPa 0,0 l/m 0 min 0 min 0 W/m 6,3 km/h (2 Bft) 91,49 %
13.12.2016 20:02 6,4 C 6,1 C 5,0 C 99 % 3 lf 1022,4 hPa 0,0 l/m 0 min 0 min 0 W/m 6,3 km/h (2 Bft) 93,62 %
13.12.2016 20:04 6,4 C 6,1 C 5,0 C 99 % 3 lf 1022,4 hPa 0,0 l/m 0 min 0 min 0 W/m 8,4 km/h (2 Bft) 93,62 %
13.12.2016 20:06 6,4 C 6,1 C 5,0 C 99 % 3 lf 1022,4 hPa 0,0 l/m 0 min 0 min 0 W/m 4,2 km/h (1 Bft) 93,48 %
13.12.2016 20:08 6,4 C 6,1 C 5,0 C 99 % 4 lf 1022,4 hPa 0,0 l/m 0 min 0 min 0 W/m 10,5 km/h (2 Bft) 93,62 %
13.12.2016 20:10 6,4 C 6,1 C 5,0 C 99 % 4 lf 1022,4 hPa 0,0 l/m 0 min 0 min 0 W/m 8,4 km/h (2 Bft) 93,62 %
13.12.2016 20:12 6,4 C 6,1 C 5,0 C 99 % 4 lf 1022,4 hPa 0,0 l/m 0 min 0 min 0 W/m 6,3 km/h (2 Bft) 91,49 %
13.12.2016 20:14 6,4 C 6,1 C 5,0 C 99 % 4 lf 1022,4 hPa 0,0 l/m 0 min 0 min 0 W/m 10,5 km/h (2 Bft) 95,74 %
13.12.2016 20:16 6,4 C 6,1 C 5,0 C 99 % 4 lf 1022,3 hPa 0,0 l/m 0 min 0 min 0 W/m 10,5 km/h (2 Bft) 95,74 %
13.12.2016 20:18 6,4 C 6,1 C 5,0 C 99 % 5 lf 1022,4 hPa 0,0 l/m 0 min 0 min 0 W/m 10,5 km/h (2 Bft) 93,48 %
13.12.2016 20:20 6,4 C 6,1 C 5,0 C 99 % 5 lf 1022,3 hPa 0,0 l/m 0 min 0 min 0 W/m 10,5 km/h (2 Bft) 91,49 %
13.12.2016 20:22 6,4 C 6,1 C 5,0 C 99 % 6 lf 1022,4 hPa 0,0 l/m 0 min 0 min 0 W/m 6,3 km/h (2 Bft) 97,87 %
13.12.2016 20:24 6,4 C 6,1 C 5,0 C 99 % 6 lf 1022,4 hPa 0,0 l/m 0 min 0 min 0 W/m 8,4 km/h (2 Bft) 97,87 %
13.12.2016 20:26 6,4 C 6,1 C 5,0 C 99 % 7 lf 1022,4 hPa 0,0 l/m 0 min 0 min 0 W/m 12,6 km/h (3 Bft) 97,87 %
13.12.2016 20:28 6,4 C 6,1 C 5,0 C 99 % 8 lf 1022,4 hPa 0,0 l/m 0 min 0 min 0 W/m 8,4 km/h (2 Bft) 100,00 %
13.12.2016 20:30 6,4 C 6,7 C 5,0 C 99 % 9 lf 1022,5 hPa 0,0 l/m 0 min 0 min 0 W/m 10,5 km/h (2 Bft) 93,48 %
13.12.2016 20:32 6,4 C 6,7 C 5,0 C 99 % 9 lf 1022,4 hPa 0,0 l/m 0 min 0 min 0 W/m 10,5 km/h (2 Bft) 100,00 %
13.12.2016 20:34 6,4 C 6,7 C 5,0 C 99 % 9 lf 1022,4 hPa 0,0 l/m 0 min 0 min 0 W/m 10,5 km/h (2 Bft) 95,74 %
13.12.2016 20:36 6,4 C 6,7 C 5,0 C 99 % 10 lf 1022,4 hPa 0,0 l/m 0 min 0 min 0 W/m 10,5 km/h (2 Bft) 95,74 %
13.12.2016 20:38 6,4 C 6,7 C 5,0 C 99 % 10 lf 1022,4 hPa 0,0 l/m 0 min 0 min 0 W/m 8,4 km/h (2 Bft) 97,87 %
13.12.2016 20:40 6,4 C 6,7 C 5,0 C 99 % 11 lf 1022,4 hPa 0,0 l/m 0 min 0 min 0 W/m 6,3 km/h (2 Bft) 97,87 %
13.12.2016 20:42 6,4 C 6,7 C 5,0 C 99 % 12 lf 1022,5 hPa 0,0 l/m 0 min 0 min 0 W/m 6,3 km/h (2 Bft) 100,00 %
13.12.2016 20:44 6,4 C 6,7 C 5,0 C 99 % 12 lf 1022,4 hPa 0,0 l/m 0 min 0 min 0 W/m 6,3 km/h (2 Bft) 100,00 %
13.12.2016 20:46 6,4 C 6,7 C 5,0 C 99 % 12 lf 1022,4 hPa 0,0 l/m 0 min 0 min 0 W/m 8,4 km/h (2 Bft) 100,00 %
13.12.2016 20:48 6,4 C 6,7 C 5,0 C 99 % 12 lf 1022,4 hPa 0,0 l/m 0 min 0 min 0 W/m 6,3 km/h (2 Bft) 100,00 %
13.12.2016 20:50 6,4 C 6,7 C 5,0 C 99 % 13 lf 1022,4 hPa 0,0 l/m 0 min 0 min 0 W/m 4,2 km/h (1 Bft) 97,87 %
13.12.2016 20:52 6,4 C 6,7 C 5,0 C 99 % 14 lf 1022,4 hPa 0,0 l/m 0 min 0 min 0 W/m 6,3 km/h (2 Bft) 97,87 %
13.12.2016 20:54 6,4 C 6,7 C 5,0 C 99 % 14 lf 1022,4 hPa 0,0 l/m 0 min 0 min 0 W/m 6,3 km/h (2 Bft) 100,00 %
13.12.2016 20:56 6,4 C 6,7 C 5,0 C 99 % 15 lf 1022,4 hPa 0,0 l/m 0 min 0 min 0 W/m 8,4 km/h (2 Bft) 100,00 %
13.12.2016 20:58 6,4 C 6,7 C 5,0 C 99 % 15 lf 1022,4 hPa 0,0 l/m 0 min 0 min 0 W/m 8,4 km/h (2 Bft) 97,87 %
13.12.2016 21:00 6,4 C 6,7 C 5,0 C 99 % 15 lf 1022,4 hPa 0,0 l/m 0 min 0 min 0 W/m 6,3 km/h (2 Bft) 100,00 %
13.12.2016 21:02 6,4 C 6,7 C 5,0 C 99 % 15 lf 1022,4 hPa 0,0 l/m 0 min 0 min 0 W/m 6,3 km/h (2 Bft) 100,00 %
13.12.2016 21:04 6,4 C 6,7 C 5,0 C 99 % 15 lf 1022,4 hPa 0,0 l/m 0 min 0 min 0 W/m 8,4 km/h (2 Bft) 100,00 %
13.12.2016 21:06 6,4 C 6,7 C 5,0 C 99 % 15 lf 1022,4 hPa 0,0 l/m 0 min 0 min 0 W/m 10,5 km/h (2 Bft) 100,00 %
13.12.2016 21:08 6,4 C 6,7 C 5,0 C 99 % 15 lf 1022,4 hPa 0,0 l/m 0 min 0 min 0 W/m 6,3 km/h (2 Bft) 97,87 %
13.12.2016 21:10 6,4 C 6,7 C 5,0 C 99 % 15 lf 1022,5 hPa 0,0 l/m 0 min 0 min 0 W/m 6,3 km/h (2 Bft) 95,74 %
13.12.2016 21:12 6,4 C 6,7 C 5,0 C 99 % 15 lf 1022,5 hPa 0,0 l/m 0 min 0 min 0 W/m 10,5 km/h (2 Bft) 93,62 %
13.12.2016 21:14 6,4 C 6,7 C 5,0 C 99 % 15 lf 1022,6 hPa 0,0 l/m 0 min 0 min 0 W/m 8,4 km/h (2 Bft) 100,00 %
13.12.2016 21:16 6,4 C 6,7 C 5,0 C 99 % 15 lf 1022,6 hPa 0,0 l/m 0 min 0 min 0 W/m 10,5 km/h (2 Bft) 100,00 %
13.12.2016 21:18 6,4 C 6,7 C 5,0 C 99 % 15 lf 1022,6 hPa 0,0 l/m 0 min 0 min 0 W/m 10,5 km/h (2 Bft) 97,87 %
13.12.2016 21:20 6,4 C 6,7 C 5,0 C 99 % 15 lf 1022,6 hPa 0,0 l/m 0 min 0 min 0 W/m 6,3 km/h (2 Bft) 93,62 %
13.12.2016 21:22 6,4 C 6,7 C 5,0 C 99 % 15 lf 1022,6 hPa 0,0 l/m 0 min 0 min 0 W/m 8,4 km/h (2 Bft) 97,87 %
13.12.2016 21:24 6,4 C 6,7 C 5,0 C 99 % 15 lf 1022,6 hPa 0,0 l/m 0 min 0 min 0 W/m 8,4 km/h (2 Bft) 95,74 %
13.12.2016 21:26 6,4 C 6,7 C 5,0 C 99 % 15 lf 1022,6 hPa 0,0 l/m 0 min 0 min 0 W/m 8,4 km/h (2 Bft) 95,74 %
13.12.2016 21:28 6,4 C 6,7 C 5,0 C 99 % 15 lf 1022,6 hPa 0,0 l/m 0 min 2 min 0 W/m 8,4 km/h (2 Bft) 97,83 %
13.12.2016 21:30 6,4 C 6,7 C 5,0 C 99 % 15 lf 1022,6 hPa 0,0 l/m 0 min 2 min 0 W/m 6,3 km/h (2 Bft) 95,74 %
13.12.2016 21:32 6,4 C 6,7 C 5,0 C 99 % 15 lf 1022,6 hPa 0,0 l/m 0 min 2 min 0 W/m 6,3 km/h (2 Bft) 97,87 %
13.12.2016 21:34 6,4 C 6,7 C 5,0 C 99 % 15 lf 1022,6 hPa 0,0 l/m 0 min 2 min 0 W/m 8,4 km/h (2 Bft) 95,74 %
13.12.2016 21:36 6,4 C 6,7 C 5,0 C 99 % 15 lf 1022,6 hPa 0,0 l/m 0 min 2 min 0 W/m 8,4 km/h (2 Bft) 93,62 %
13.12.2016 21:38 6,4 C 6,7 C 5,0 C 99 % 15 lf 1022,6 hPa 0,0 l/m 0 min 2 min 0 W/m 8,4 km/h (2 Bft) 95,74 %
13.12.2016 21:40 6,4 C 6,7 C 5,0 C 99 % 15 lf 1022,6 hPa 0,0 l/m 0 min 0 min 0 W/m 6,3 km/h (2 Bft) 95,65 %
13.12.2016 21:42 6,4 C 6,7 C 5,0 C 99 % 15 lf 1022,7 hPa 0,0 l/m 0 min 0 min 0 W/m 8,4 km/h (2 Bft) 95,74 %
13.12.2016 21:44 6,4 C 6,7 C 5,0 C 99 % 15 lf 1022,6 hPa 0,0 l/m 0 min 0 min 0 W/m 8,4 km/h (2 Bft) 93,62 %
13.12.2016 21:46 6,4 C 6,7 C 5,0 C 99 % 15 lf 1022,6 hPa 0,0 l/m 0 min 2 min 0 W/m 8,4 km/h (2 Bft) 95,74 %
13.12.2016 21:48 6,4 C 6,7 C 5,0 C 99 % 15 lf 1022,6 hPa 0,0 l/m 0 min 0 min 0 W/m 8,4 km/h (2 Bft) 95,74 %
13.12.2016 21:50 6,4 C 6,7 C 5,0 C 99 % 15 lf 1022,6 hPa 0,0 l/m 0 min 0 min 0 W/m 8,4 km/h (2 Bft) 95,74 %
13.12.2016 21:52 6,4 C 6,7 C 5,0 C 99 % 15 lf 1022,6 hPa 0,2 l/m 0 min 2 min 0 W/m 8,4 km/h (2 Bft) 91,30 %
13.12.2016 21:54 6,4 C 6,7 C 5,0 C 99 % 15 lf 1022,6 hPa 0,0 l/m 0 min 2 min 0 W/m 6,3 km/h (2 Bft) 93,62 %
13.12.2016 21:56 6,4 C 6,7 C 5,6 C 99 % 15 lf 1022,6 hPa 0,0 l/m 0 min 2 min 0 W/m 8,4 km/h (2 Bft) 93,62 %
13.12.2016 21:58 6,4 C 6,7 C 5,6 C 99 % 15 lf 1022,6 hPa 0,0 l/m 0 min 2 min 0 W/m 6,3 km/h (2 Bft) 93,62 %
13.12.2016 22:00 6,4 C 6,7 C 5,6 C 99 % 15 lf 1022,7 hPa 0,0 l/m 0 min 2 min 0 W/m 8,4 km/h (2 Bft) 93,62 %
13.12.2016 22:02 6,4 C 6,7 C 5,6 C 99 % 15 lf 1022,7 hPa 0,0 l/m 0 min 2 min 0 W/m 8,4 km/h (2 Bft) 91,49 %
13.12.2016 22:04 6,4 C 6,7 C 5,6 C 99 % 15 lf 1022,7 hPa 0,2 l/m 0 min 2 min 0 W/m 8,4 km/h (2 Bft) 93,48 %
13.12.2016 22:06 6,4 C 6,7 C 5,6 C 99 % 15 lf 1022,7 hPa 0,0 l/m 0 min 2 min 0 W/m 8,4 km/h (2 Bft) 93,62 %
13.12.2016 22:08 6,4 C 6,7 C 5,6 C 99 % 15 lf 1022,8 hPa 0,0 l/m 0 min 2 min 0 W/m 6,3 km/h (2 Bft) 95,74 %
13.12.2016 22:10 6,4 C 6,7 C 5,6 C 99 % 15 lf 1022,7 hPa 0,0 l/m 0 min 2 min 0 W/m 4,2 km/h (1 Bft) 95,74 %
13.12.2016 22:12 6,4 C 6,7 C 5,6 C 99 % 15 lf 1022,7 hPa 0,0 l/m 0 min 2 min 0 W/m 8,4 km/h (2 Bft) 95,74 %
13.12.2016 22:14 6,4 C 6,7 C 5,6 C 99 % 15 lf 1022,8 hPa 0,0 l/m 0 min 2 min 0 W/m 6,3 km/h (2 Bft) 89,13 %
13.12.2016 22:16 6,4 C 6,7 C 5,6 C 99 % 15 lf 1022,7 hPa 0,0 l/m 0 min 2 min 0 W/m 8,4 km/h (2 Bft) 93,62 %
13.12.2016 22:18 6,4 C 6,7 C 5,6 C 99 % 15 lf 1022,8 hPa 0,0 l/m 0 min 2 min 0 W/m 8,4 km/h (2 Bft) 95,74 %
13.12.2016 22:20 6,4 C 6,7 C 5,6 C 99 % 15 lf 1022,7 hPa 0,0 l/m 0 min 2 min 0 W/m 6,3 km/h (2 Bft) 91,49 %
13.12.2016 22:22 6,4 C 6,7 C 5,6 C 99 % 15 lf 1022,7 hPa 0,0 l/m 0 min 2 min 0 W/m 8,4 km/h (2 Bft) 97,87 %
13.12.2016 22:24 6,4 C 6,7 C 5,6 C 99 % 15 lf 1022,8 hPa 0,0 l/m 0 min 0 min 0 W/m 6,3 km/h (2 Bft) 97,87 %
13.12.2016 22:26 6,4 C 6,7 C 5,6 C 99 % 15 lf 1022,7 hPa 0,0 l/m 0 min 2 min 0 W/m 8,4 km/h (2 Bft) 97,83 %
13.12.2016 22:28 6,4 C 6,7 C 5,6 C 99 % 15 lf 1022,7 hPa 0,2 l/m 0 min 2 min 0 W/m 8,4 km/h (2 Bft) 95,74 %
13.12.2016 22:30 6,4 C 6,7 C 5,0 C 99 % 15 lf 1022,7 hPa 0,0 l/m 0 min 2 min 0 W/m 8,4 km/h (2 Bft) 95,74 %
13.12.2016 22:32 6,4 C 6,7 C 5,0 C 99 % 15 lf 1022,7 hPa 0,0 l/m 0 min 2 min 0 W/m 6,3 km/h (2 Bft) 97,87 %
13.12.2016 22:34 6,4 C 6,7 C 5,0 C 99 % 15 lf 1022,7 hPa 0,0 l/m 0 min 0 min 0 W/m 8,4 km/h (2 Bft) 97,87 %
13.12.2016 22:36 6,4 C 6,7 C 5,0 C 99 % 15 lf 1022,7 hPa 0,0 l/m 0 min 2 min 0 W/m 8,4 km/h (2 Bft) 97,87 %
13.12.2016 22:38 6,4 C 6,7 C 5,0 C 99 % 15 lf 1022,7 hPa 0,0 l/m 0 min 2 min 0 W/m 8,4 km/h (2 Bft) 93,48 %
13.12.2016 22:40 6,4 C 6,7 C 5,6 C 99 % 15 lf 1022,7 hPa 0,0 l/m 0 min 2 min 0 W/m 8,4 km/h (2 Bft) 95,74 %
13.12.2016 22:42 6,4 C 6,7 C 5,6 C 99 % 15 lf 1022,7 hPa 0,0 l/m 0 min 0 min 0 W/m 10,5 km/h (2 Bft) 97,87 %
13.12.2016 22:44 6,4 C 6,7 C 5,6 C 99 % 15 lf 1022,7 hPa 0,0 l/m 0 min 0 min 0 W/m 10,5 km/h (2 Bft) 97,87 %
13.12.2016 22:46 6,4 C 6,7 C 5,6 C 99 % 15 lf 1022,6 hPa 0,0 l/m 0 min 0 min 0 W/m 10,5 km/h (2 Bft) 93,62 %
13.12.2016 22:48 6,4 C 6,7 C 5,6 C 99 % 15 lf 1022,7 hPa 0,0 l/m 0 min 2 min 0 W/m 8,4 km/h (2 Bft) 97,87 %
13.12.2016 22:50 6,4 C 6,7 C 5,6 C 99 % 15 lf 1022,7 hPa 0,0 l/m 0 min 0 min 0 W/m 12,6 km/h (3 Bft) 97,83 %
13.12.2016 22:52 6,5 C 6,7 C 5,6 C 99 % 15 lf 1022,7 hPa 0,0 l/m 0 min 0 min 0 W/m 10,5 km/h (2 Bft) 100,00 %
13.12.2016 22:54 6,5 C 6,7 C 5,6 C 99 % 15 lf 1022,7 hPa 0,0 l/m 0 min 0 min 0 W/m 12,6 km/h (3 Bft) 100,00 %
13.12.2016 22:56 6,5 C 6,7 C 5,6 C 99 % 15 lf 1022,7 hPa 0,0 l/m 0 min 2 min 0 W/m 8,4 km/h (2 Bft) 100,00 %
13.12.2016 22:58 6,5 C 6,7 C 5,6 C 99 % 15 lf 1022,6 hPa 0,0 l/m 0 min 2 min 0 W/m 12,6 km/h (3 Bft) 100,00 %
13.12.2016 23:00 6,5 C 6,7 C 5,6 C 99 % 15 lf 1022,6 hPa 0,0 l/m 0 min 2 min 0 W/m 10,5 km/h (2 Bft) 100,00 %
13.12.2016 23:02 6,5 C 6,7 C 5,6 C 99 % 15 lf 1022,7 hPa 0,0 l/m 0 min 2 min 0 W/m 8,4 km/h (2 Bft) 100,00 %
13.12.2016 23:04 6,5 C 6,7 C 5,6 C 99 % 15 lf 1022,6 hPa 0,2 l/m 0 min 2 min 0 W/m 8,4 km/h (2 Bft) 100,00 %
13.12.2016 23:06 6,5 C 6,7 C 5,6 C 99 % 15 lf 1022,6 hPa 0,0 l/m 0 min 2 min 0 W/m 8,4 km/h (2 Bft) 100,00 %
13.12.2016 23:08 6,5 C 6,7 C 5,6 C 99 % 15 lf 1022,6 hPa 0,0 l/m 0 min 2 min 0 W/m 8,4 km/h (2 Bft) 97,87 %
13.12.2016 23:10 6,5 C 6,7 C 5,6 C 99 % 15 lf 1022,6 hPa 0,0 l/m 0 min 2 min 0 W/m 8,4 km/h (2 Bft) 97,87 %
13.12.2016 23:12 6,5 C 6,7 C 5,6 C 99 % 15 lf 1022,6 hPa 0,0 l/m 0 min 2 min 0 W/m 8,4 km/h (2 Bft) 100,00 %
13.12.2016 23:14 6,5 C 6,7 C 5,6 C 99 % 15 lf 1022,5 hPa 0,0 l/m 0 min 2 min 0 W/m 8,4 km/h (2 Bft) 95,74 %
13.12.2016 23:16 6,5 C 6,7 C 5,6 C 99 % 15 lf 1022,5 hPa 0,0 l/m 0 min 0 min 0 W/m 10,5 km/h (2 Bft) 97,87 %
13.12.2016 23:18 6,5 C 6,7 C 5,6 C 99 % 15 lf 1022,5 hPa 0,0 l/m 0 min 2 min 0 W/m 6,3 km/h (2 Bft) 97,87 %
13.12.2016 23:20 6,5 C 6,7 C 5,6 C 99 % 15 lf 1022,6 hPa 0,0 l/m 0 min 2 min 0 W/m 8,4 km/h (2 Bft) 95,74 %
13.12.2016 23:22 6,5 C 6,7 C 5,6 C 99 % 15 lf 1022,6 hPa 0,0 l/m 0 min 2 min 0 W/m 8,4 km/h (2 Bft) 97,87 %
13.12.2016 23:24 6,5 C 6,7 C 5,6 C 99 % 15 lf 1022,5 hPa 0,0 l/m 0 min 2 min 0 W/m 8,4 km/h (2 Bft) 95,65 %
13.12.2016 23:26 6,5 C 6,7 C 5,6 C 99 % 15 lf 1022,6 hPa 0,0 l/m 0 min 2 min 0 W/m 8,4 km/h (2 Bft) 97,87 %
13.12.2016 23:28 6,5 C 6,7 C 5,6 C 99 % 15 lf 1022,5 hPa 0,0 l/m 0 min 2 min 0 W/m 8,4 km/h (2 Bft) 95,74 %
13.12.2016 23:30 6,5 C 6,7 C 5,6 C 99 % 15 lf 1022,4 hPa 0,2 l/m 0 min 2 min 0 W/m 10,5 km/h (2 Bft) 97,87 %
13.12.2016 23:32 6,5 C 6,7 C 5,6 C 99 % 15 lf 1022,4 hPa 0,0 l/m 0 min 0 min 0 W/m 8,4 km/h (2 Bft) 97,87 %
13.12.2016 23:34 6,6 C 6,7 C 5,6 C 99 % 15 lf 1022,4 hPa 0,0 l/m 0 min 0 min 0 W/m 8,4 km/h (2 Bft) 97,87 %
13.12.2016 23:36 6,6 C 6,7 C 5,6 C 99 % 15 lf 1022,4 hPa 0,0 l/m 0 min 0 min 0 W/m 8,4 km/h (2 Bft) 93,48 %
13.12.2016 23:38 6,6 C 6,7 C 5,6 C 99 % 15 lf 1022,4 hPa 0,0 l/m 0 min 0 min 0 W/m 8,4 km/h (2 Bft) 93,62 %
13.12.2016 23:40 6,6 C 6,7 C 5,6 C 99 % 15 lf 1022,4 hPa 0,0 l/m 0 min 0 min 0 W/m 6,3 km/h (2 Bft) 95,74 %
13.12.2016 23:42 6,6 C 6,7 C 5,6 C 99 % 15 lf 1022,4 hPa 0,0 l/m 0 min 0 min 0 W/m 6,3 km/h (2 Bft) 93,62 %
13.12.2016 23:44 6,6 C 6,7 C 5,6 C 99 % 15 lf 1022,4 hPa 0,0 l/m 0 min 0 min 0 W/m 6,3 km/h (2 Bft) 89,36 %
13.12.2016 23:46 6,6 C 6,7 C 5,6 C 99 % 15 lf 1022,4 hPa 0,0 l/m 0 min 2 min 0 W/m 4,2 km/h (1 Bft) 95,74 %
13.12.2016 23:48 6,6 C 6,7 C 5,6 C 99 % 15 lf 1022,4 hPa 0,0 l/m 0 min 2 min 0 W/m 6,3 km/h (2 Bft) 95,65 %
13.12.2016 23:50 6,6 C 6,7 C 5,6 C 99 % 15 lf 1022,4 hPa 0,0 l/m 0 min 2 min 0 W/m 6,3 km/h (2 Bft) 95,74 %
13.12.2016 23:52 6,6 C 6,7 C 5,6 C 99 % 15 lf 1022,4 hPa 0,0 l/m 0 min 2 min 0 W/m 6,3 km/h (2 Bft) 95,74 %
13.12.2016 23:54 6,6 C 6,7 C 5,6 C 99 % 15 lf 1022,4 hPa 0,2 l/m 0 min 2 min 0 W/m 6,3 km/h (2 Bft) 93,62 %
13.12.2016 23:56 6,6 C 6,7 C 5,6 C 99 % 15 lf 1022,4 hPa 0,0 l/m 0 min 2 min 0 W/m 8,4 km/h (2 Bft) 95,74 %
13.12.2016 23:58 6,6 C 6,7 C 5,6 C 99 % 15 lf 1022,4 hPa 0,0 l/m 0 min 2 min 0 W/m 6,3 km/h (2 Bft) 95,74 %
_ Min-Zeit 03:16 02:04 02:54 07:46 04:20 15:28 - - - - 02:08 04:02
Minimum _ 2,8 C 2,8 C -0,6 C 94 % 0 lf 1022,3 hPa - - - - 0,0 km/h (0 Bft) 80,00 %
_ Max-Zeit 14:42 14:08 12:22 18:06 02:56 00:08 08:22 00:00 08:10 12:22 13:54 00:08
Maximum _ 6,8 C 7,2 C 6,1 C 99 % 15 lf 1024,8 hPa 0,2 l/m 0 min 2 min 101 W/m 14,6 km/h
O-SO (3 Bft)
100,00 %
Durchschnitt _ 5,4 C 5,6 C 4,2 C 97 % 6 lf 1023,1 hPa #3,4 l/m #0 min. #4:10 h 31 W/m 7,8 km/h (2 Bft) 95,99 %
© 2016 W. Hausmann